Wetterdaten: Freitag, 06.02.2015
Datum Zeit Temp. Aussen +5cm Feuchte Auss Luftdruck Regen Sonnenschein Regendauer Solar Windben
06.02.2015 00:00 -1,2 C -2,8 C 83 % 1025,6 hPa 0,0 l/m 0 min 0 min 0 W/m 25,1 km/h (4 Bft)
06.02.2015 00:02 -1,2 C -2,8 C 83 % 1025,6 hPa 0,0 l/m 0 min 0 min 0 W/m 23,0 km/h (4 Bft)
06.02.2015 00:05 -1,2 C -2,8 C 83 % 1025,5 hPa 0,0 l/m 0 min 0 min 0 W/m 31,4 km/h (5 Bft)
06.02.2015 00:06 -1,2 C -2,2 C 83 % 1025,5 hPa 0,0 l/m 0 min 0 min 0 W/m 31,4 km/h (5 Bft)
06.02.2015 00:08 -1,2 C -2,2 C 83 % 1025,6 hPa 0,0 l/m 0 min 0 min 0 W/m 25,1 km/h (4 Bft)
06.02.2015 00:10 -1,2 C -2,2 C 83 % 1025,6 hPa 0,0 l/m 0 min 0 min 0 W/m 31,4 km/h (5 Bft)
06.02.2015 00:12 -1,1 C -2,2 C 83 % 1025,6 hPa 0,0 l/m 0 min 0 min 0 W/m 25,1 km/h (4 Bft)
06.02.2015 00:14 -1,1 C -2,2 C 83 % 1025,6 hPa 0,0 l/m 0 min 0 min 0 W/m 25,1 km/h (4 Bft)
06.02.2015 00:16 -1,1 C -2,2 C 83 % 1025,6 hPa 0,0 l/m 0 min 0 min 0 W/m 25,1 km/h (4 Bft)
06.02.2015 00:18 -1,0 C -2,2 C 83 % 1025,6 hPa 0,0 l/m 0 min 0 min 0 W/m 31,4 km/h (5 Bft)
06.02.2015 00:20 -1,0 C -2,2 C 82 % 1025,6 hPa 0,0 l/m 0 min 0 min 0 W/m 31,4 km/h (5 Bft)
06.02.2015 00:22 -1,0 C -2,2 C 83 % 1025,6 hPa 0,0 l/m 0 min 0 min 0 W/m 23,0 km/h (4 Bft)
06.02.2015 00:24 -1,0 C -2,2 C 82 % 1025,7 hPa 0,0 l/m 0 min 0 min 0 W/m 25,1 km/h (4 Bft)
06.02.2015 00:26 -0,9 C -2,2 C 82 % 1025,6 hPa 0,0 l/m 0 min 0 min 0 W/m 27,2 km/h (4 Bft)
06.02.2015 00:28 -1,0 C -2,2 C 82 % 1025,6 hPa 0,0 l/m 0 min 0 min 0 W/m 33,5 km/h (5 Bft)
06.02.2015 00:30 -1,0 C -2,2 C 82 % 1025,6 hPa 0,0 l/m 0 min 0 min 0 W/m 29,3 km/h (5 Bft)
06.02.2015 00:32 -1,0 C -2,2 C 82 % 1025,6 hPa 0,0 l/m 0 min 0 min 0 W/m 31,4 km/h (5 Bft)
06.02.2015 00:34 -1,0 C -2,2 C 82 % 1025,5 hPa 0,0 l/m 0 min 0 min 0 W/m 27,2 km/h (4 Bft)
06.02.2015 00:36 -1,0 C -2,2 C 81 % 1025,5 hPa 0,0 l/m 0 min 0 min 0 W/m 29,3 km/h (5 Bft)
06.02.2015 00:38 -1,0 C -2,2 C 81 % 1025,5 hPa 0,0 l/m 0 min 0 min 0 W/m 27,2 km/h (4 Bft)
06.02.2015 00:40 -1,0 C -2,2 C 81 % 1025,5 hPa 0,0 l/m 0 min 0 min 0 W/m 27,2 km/h (4 Bft)
06.02.2015 00:42 -1,0 C -2,2 C 81 % 1025,5 hPa 0,0 l/m 0 min 0 min 0 W/m 27,2 km/h (4 Bft)
06.02.2015 00:44 -1,0 C -2,2 C 81 % 1025,5 hPa 0,0 l/m 0 min 0 min 0 W/m 31,4 km/h (5 Bft)
06.02.2015 00:46 -1,1 C -2,2 C 81 % 1025,5 hPa 0,0 l/m 0 min 0 min 0 W/m 31,4 km/h (5 Bft)
06.02.2015 00:48 -1,1 C -2,8 C 81 % 1025,5 hPa 0,0 l/m 0 min 0 min 0 W/m 23,0 km/h (4 Bft)
06.02.2015 00:50 -1,1 C -2,8 C 81 % 1025,5 hPa 0,0 l/m 0 min 0 min 0 W/m 27,2 km/h (4 Bft)
06.02.2015 00:52 -1,1 C -2,8 C 81 % 1025,5 hPa 0,0 l/m 0 min 0 min 0 W/m 20,9 km/h (4 Bft)
06.02.2015 00:54 -1,1 C -2,8 C 81 % 1025,5 hPa 0,0 l/m 0 min 0 min 0 W/m 25,1 km/h (4 Bft)
06.02.2015 00:56 -1,2 C -2,8 C 81 % 1025,5 hPa 0,0 l/m 0 min 0 min 0 W/m 23,0 km/h (4 Bft)
06.02.2015 00:58 -1,2 C -2,8 C 81 % 1025,5 hPa 0,0 l/m 0 min 0 min 0 W/m 20,9 km/h (4 Bft)
06.02.2015 01:00 -1,2 C -2,8 C 81 % 1025,5 hPa 0,0 l/m 0 min 0 min 0 W/m 25,1 km/h (4 Bft)
06.02.2015 01:02 -1,2 C -2,8 C 81 % 1025,5 hPa 0,0 l/m 0 min 0 min 0 W/m 20,9 km/h (4 Bft)
06.02.2015 01:04 -1,2 C -2,8 C 81 % 1025,5 hPa 0,0 l/m 0 min 0 min 0 W/m 29,3 km/h (5 Bft)
06.02.2015 01:06 -1,3 C -2,8 C 81 % 1025,5 hPa 0,0 l/m 0 min 0 min 0 W/m 27,2 km/h (4 Bft)
06.02.2015 01:08 -1,3 C -2,8 C 81 % 1025,6 hPa 0,0 l/m 0 min 0 min 0 W/m 20,9 km/h (4 Bft)
06.02.2015 01:10 -1,3 C -2,8 C 81 % 1025,5 hPa 0,0 l/m 0 min 0 min 0 W/m 23,0 km/h (4 Bft)
06.02.2015 01:12 -1,3 C -2,8 C 81 % 1025,5 hPa 0,0 l/m 0 min 0 min 0 W/m 27,2 km/h (4 Bft)
06.02.2015 01:14 -1,3 C -2,8 C 81 % 1025,5 hPa 0,0 l/m 0 min 0 min 0 W/m 25,1 km/h (4 Bft)
06.02.2015 01:16 -1,4 C -2,8 C 81 % 1025,5 hPa 0,0 l/m 0 min 0 min 0 W/m 20,9 km/h (4 Bft)
06.02.2015 01:18 -1,4 C -2,8 C 81 % 1025,5 hPa 0,0 l/m 0 min 0 min 0 W/m 16,7 km/h (3 Bft)
06.02.2015 01:20 -1,4 C -2,8 C 81 % 1025,5 hPa 0,0 l/m 0 min 0 min 0 W/m 14,6 km/h (3 Bft)
06.02.2015 01:22 -1,4 C -2,8 C 81 % 1025,5 hPa 0,0 l/m 0 min 0 min 0 W/m 23,0 km/h (4 Bft)
06.02.2015 01:24 -1,4 C -2,8 C 81 % 1025,5 hPa 0,0 l/m 0 min 0 min 0 W/m 18,8 km/h (3 Bft)
06.02.2015 01:26 -1,5 C -2,8 C 81 % 1025,5 hPa 0,0 l/m 0 min 0 min 0 W/m 33,5 km/h (5 Bft)
06.02.2015 01:28 -1,5 C -2,8 C 81 % 1025,4 hPa 0,0 l/m 0 min 0 min 0 W/m 29,3 km/h (5 Bft)
06.02.2015 01:30 -1,5 C -2,8 C 81 % 1025,4 hPa 0,0 l/m 0 min 0 min 0 W/m 25,1 km/h (4 Bft)
06.02.2015 01:32 -1,5 C -2,8 C 81 % 1025,4 hPa 0,0 l/m 0 min 0 min 0 W/m 29,3 km/h (5 Bft)
06.02.2015 01:34 -1,5 C -2,8 C 81 % 1025,4 hPa 0,0 l/m 0 min 0 min 0 W/m 27,2 km/h (4 Bft)
06.02.2015 01:36 -1,5 C -2,8 C 81 % 1025,4 hPa 0,0 l/m 0 min 0 min 0 W/m 25,1 km/h (4 Bft)
06.02.2015 01:38 -1,5 C -2,8 C 81 % 1025,5 hPa 0,0 l/m 0 min 0 min 0 W/m 23,0 km/h (4 Bft)
06.02.2015 01:40 -1,5 C -2,8 C 81 % 1025,4 hPa 0,0 l/m 0 min 0 min 0 W/m 23,0 km/h (4 Bft)
06.02.2015 01:42 -1,6 C -2,8 C 81 % 1025,5 hPa 0,0 l/m 0 min 0 min 0 W/m 20,9 km/h (4 Bft)
06.02.2015 01:44 -1,6 C -2,8 C 81 % 1025,5 hPa 0,0 l/m 0 min 0 min 0 W/m 37,7 km/h (5 Bft)
06.02.2015 01:46 -1,6 C -2,8 C 81 % 1025,5 hPa 0,0 l/m 0 min 0 min 0 W/m 29,3 km/h (5 Bft)
06.02.2015 01:48 -1,6 C -2,8 C 81 % 1025,5 hPa 0,0 l/m 0 min 0 min 0 W/m 27,2 km/h (4 Bft)
06.02.2015 01:50 -1,6 C -2,8 C 81 % 1025,4 hPa 0,0 l/m 0 min 0 min 0 W/m 27,2 km/h (4 Bft)
06.02.2015 01:52 -1,6 C -2,8 C 82 % 1025,4 hPa 0,0 l/m 0 min 0 min 0 W/m 27,2 km/h (4 Bft)
06.02.2015 01:54 -1,6 C -3,3 C 82 % 1025,4 hPa 0,0 l/m 0 min 0 min 0 W/m 27,2 km/h (4 Bft)
06.02.2015 01:56 -1,6 C -2,8 C 82 % 1025,4 hPa 0,0 l/m 0 min 0 min 0 W/m 25,1 km/h (4 Bft)
06.02.2015 01:58 -1,6 C -3,3 C 82 % 1025,4 hPa 0,0 l/m 0 min 0 min 0 W/m 29,3 km/h (5 Bft)
06.02.2015 02:00 -1,6 C -2,8 C 82 % 1025,4 hPa 0,0 l/m 0 min 0 min 0 W/m 23,0 km/h (4 Bft)
06.02.2015 02:02 -1,6 C -2,8 C 82 % 1025,4 hPa 0,0 l/m 0 min 0 min 0 W/m 25,1 km/h (4 Bft)
06.02.2015 02:04 -1,6 C -3,3 C 82 % 1025,4 hPa 0,0 l/m 0 min 0 min 0 W/m 20,9 km/h (4 Bft)
06.02.2015 02:06 -1,6 C -3,3 C 82 % 1025,4 hPa 0,0 l/m 0 min 0 min 0 W/m 20,9 km/h (4 Bft)
06.02.2015 02:08 -1,7 C -3,3 C 82 % 1025,4 hPa 0,0 l/m 0 min 0 min 0 W/m 29,3 km/h (5 Bft)
06.02.2015 02:10 -1,7 C -3,3 C 82 % 1025,5 hPa 0,0 l/m 0 min 0 min 0 W/m 20,9 km/h (4 Bft)
06.02.2015 02:12 -1,7 C -3,3 C 82 % 1025,5 hPa 0,0 l/m 0 min 0 min 0 W/m 18,8 km/h (3 Bft)
06.02.2015 02:14 -1,7 C -3,3 C 82 % 1025,5 hPa 0,0 l/m 0 min 0 min 0 W/m 27,2 km/h (4 Bft)
06.02.2015 02:16 -1,7 C -3,3 C 82 % 1025,4 hPa 0,0 l/m 0 min 0 min 0 W/m 20,9 km/h (4 Bft)
06.02.2015 02:18 -1,7 C -3,3 C 82 % 1025,5 hPa 0,0 l/m 0 min 0 min 0 W/m 27,2 km/h (4 Bft)
06.02.2015 02:20 -1,7 C -3,3 C 82 % 1025,4 hPa 0,0 l/m 0 min 0 min 0 W/m 25,1 km/h (4 Bft)
06.02.2015 02:22 -1,8 C -3,3 C 82 % 1025,5 hPa 0,0 l/m 0 min 0 min 0 W/m 33,5 km/h (5 Bft)
06.02.2015 02:24 -1,8 C -3,3 C 82 % 1025,4 hPa 0,0 l/m 0 min 0 min 0 W/m 20,9 km/h (4 Bft)
06.02.2015 02:26 -1,8 C -3,3 C 82 % 1025,4 hPa 0,0 l/m 0 min 0 min 0 W/m 20,9 km/h (4 Bft)
06.02.2015 02:28 -1,8 C -3,3 C 82 % 1025,5 hPa 0,0 l/m 0 min 0 min 0 W/m 20,9 km/h (4 Bft)
06.02.2015 02:30 -1,8 C -3,3 C 82 % 1025,5 hPa 0,0 l/m 0 min 0 min 0 W/m 25,1 km/h (4 Bft)
06.02.2015 02:32 -1,8 C -3,3 C 82 % 1025,4 hPa 0,0 l/m 0 min 0 min 0 W/m 20,9 km/h (4 Bft)
06.02.2015 02:34 -1,8 C -3,3 C 82 % 1025,5 hPa 0,0 l/m 0 min 0 min 0 W/m 27,2 km/h (4 Bft)
06.02.2015 02:36 -1,8 C -3,3 C 82 % 1025,5 hPa 0,0 l/m 0 min 0 min 0 W/m 20,9 km/h (4 Bft)
06.02.2015 02:38 -1,8 C -3,3 C 82 % 1025,5 hPa 0,0 l/m 0 min 0 min 0 W/m 23,0 km/h (4 Bft)
06.02.2015 02:40 -1,8 C -3,3 C 83 % 1025,5 hPa 0,0 l/m 0 min 0 min 0 W/m 20,9 km/h (4 Bft)
06.02.2015 02:42 -1,8 C -3,3 C 83 % 1025,5 hPa 0,0 l/m 0 min 0 min 0 W/m 27,2 km/h (4 Bft)
06.02.2015 02:44 -1,8 C -3,3 C 83 % 1025,5 hPa 0,0 l/m 0 min 0 min 0 W/m 23,0 km/h (4 Bft)
06.02.2015 02:46 -1,8 C -3,3 C 83 % 1025,5 hPa 0,0 l/m 0 min 0 min 0 W/m 20,9 km/h (4 Bft)
06.02.2015 02:48 -1,8 C -3,3 C 83 % 1025,5 hPa 0,0 l/m 0 min 0 min 0 W/m 23,0 km/h (4 Bft)
06.02.2015 02:50 -1,9 C -3,3 C 83 % 1025,6 hPa 0,0 l/m 0 min 0 min 0 W/m 29,3 km/h (5 Bft)
06.02.2015 02:52 -1,8 C -3,3 C 83 % 1025,5 hPa 0,0 l/m 0 min 0 min 0 W/m 27,2 km/h (4 Bft)
06.02.2015 02:54 -1,8 C -3,3 C 83 % 1025,5 hPa 0,0 l/m 0 min 0 min 0 W/m 20,9 km/h (4 Bft)
06.02.2015 02:56 -1,8 C -3,3 C 83 % 1025,5 hPa 0,0 l/m 0 min 0 min 0 W/m 16,7 km/h (3 Bft)
06.02.2015 02:58 -1,8 C -3,3 C 83 % 1025,5 hPa 0,0 l/m 0 min 0 min 0 W/m 18,8 km/h (3 Bft)
06.02.2015 03:00 -1,9 C -3,3 C 83 % 1025,4 hPa 0,0 l/m 0 min 0 min 0 W/m 27,2 km/h (4 Bft)
06.02.2015 03:02 -1,9 C -3,3 C 83 % 1025,4 hPa 0,0 l/m 0 min 0 min 0 W/m 18,8 km/h (3 Bft)
06.02.2015 03:04 -1,9 C -3,3 C 83 % 1025,4 hPa 0,0 l/m 0 min 0 min 0 W/m 25,1 km/h (4 Bft)
06.02.2015 03:06 -1,9 C -3,3 C 83 % 1025,5 hPa 0,0 l/m 0 min 0 min 0 W/m 33,5 km/h (5 Bft)
06.02.2015 03:08 -1,9 C -3,3 C 83 % 1025,5 hPa 0,0 l/m 0 min 0 min 0 W/m 27,2 km/h (4 Bft)
06.02.2015 03:10 -1,9 C -3,3 C 83 % 1025,5 hPa 0,0 l/m 0 min 0 min 0 W/m 25,1 km/h (4 Bft)
06.02.2015 03:12 -1,9 C -3,3 C 83 % 1025,4 hPa 0,0 l/m 0 min 0 min 0 W/m 20,9 km/h (4 Bft)
06.02.2015 03:14 -2,0 C -3,3 C 84 % 1025,5 hPa 0,0 l/m 0 min 0 min 0 W/m 31,4 km/h (5 Bft)
06.02.2015 03:16 -2,0 C -3,3 C 84 % 1025,5 hPa 0,0 l/m 0 min 0 min 0 W/m 31,4 km/h (5 Bft)
06.02.2015 03:18 -2,0 C -3,3 C 84 % 1025,4 hPa 0,0 l/m 0 min 0 min 0 W/m 23,0 km/h (4 Bft)
06.02.2015 03:20 -2,0 C -3,3 C 84 % 1025,4 hPa 0,0 l/m 0 min 0 min 0 W/m 23,0 km/h (4 Bft)
06.02.2015 03:22 -2,0 C -3,3 C 84 % 1025,4 hPa 0,0 l/m 0 min 0 min 0 W/m 29,3 km/h (5 Bft)
06.02.2015 03:24 -2,0 C -3,3 C 84 % 1025,4 hPa 0,0 l/m 0 min 0 min 0 W/m 25,1 km/h (4 Bft)
06.02.2015 03:26 -2,1 C -3,3 C 84 % 1025,4 hPa 0,0 l/m 0 min 0 min 0 W/m 27,2 km/h (4 Bft)
06.02.2015 03:28 -2,1 C -3,3 C 84 % 1025,5 hPa 0,0 l/m 0 min 0 min 0 W/m 31,4 km/h (5 Bft)
06.02.2015 03:30 -2,1 C -3,3 C 84 % 1025,5 hPa 0,0 l/m 0 min 0 min 0 W/m 27,2 km/h (4 Bft)
06.02.2015 03:32 -2,1 C -3,3 C 84 % 1025,5 hPa 0,0 l/m 0 min 0 min 0 W/m 31,4 km/h (5 Bft)
06.02.2015 03:34 -2,1 C -3,3 C 84 % 1025,5 hPa 0,0 l/m 0 min 0 min 0 W/m 27,2 km/h (4 Bft)
06.02.2015 03:36 -2,1 C -3,3 C 84 % 1025,5 hPa 0,0 l/m 0 min 0 min 0 W/m 27,2 km/h (4 Bft)
06.02.2015 03:38 -2,1 C -3,3 C 84 % 1025,5 hPa 0,0 l/m 0 min 0 min 0 W/m 20,9 km/h (4 Bft)
06.02.2015 03:40 -2,1 C -3,3 C 84 % 1025,5 hPa 0,0 l/m 0 min 0 min 0 W/m 25,1 km/h (4 Bft)
06.02.2015 03:42 -2,1 C -3,3 C 84 % 1025,5 hPa 0,0 l/m 0 min 0 min 0 W/m 29,3 km/h (5 Bft)
06.02.2015 03:44 -2,1 C -3,3 C 84 % 1025,5 hPa 0,0 l/m 0 min 0 min 0 W/m 25,1 km/h (4 Bft)
06.02.2015 03:46 -2,1 C -3,3 C 85 % 1025,5 hPa 0,0 l/m 0 min 0 min 0 W/m 33,5 km/h (5 Bft)
06.02.2015 03:48 -2,1 C -3,3 C 85 % 1025,5 hPa 0,0 l/m 0 min 0 min 0 W/m 20,9 km/h (4 Bft)
06.02.2015 03:50 -2,1 C -3,3 C 85 % 1025,5 hPa 0,0 l/m 0 min 0 min 0 W/m 18,8 km/h (3 Bft)
06.02.2015 03:52 -2,1 C -3,9 C 85 % 1025,4 hPa 0,0 l/m 0 min 0 min 0 W/m 23,0 km/h (4 Bft)
06.02.2015 03:54 -2,1 C -3,9 C 85 % 1025,5 hPa 0,0 l/m 0 min 0 min 0 W/m 27,2 km/h (4 Bft)
06.02.2015 03:56 -2,1 C -3,9 C 85 % 1025,5 hPa 0,0 l/m 0 min 0 min 0 W/m 25,1 km/h (4 Bft)
06.02.2015 03:58 -2,1 C -3,3 C 85 % 1025,5 hPa 0,0 l/m 0 min 0 min 0 W/m 27,2 km/h (4 Bft)
06.02.2015 04:00 -2,1 C -3,3 C 85 % 1025,5 hPa 0,0 l/m 0 min 0 min 0 W/m 31,4 km/h (5 Bft)
06.02.2015 04:02 -2,1 C -3,3 C 85 % 1025,4 hPa 0,0 l/m 0 min 0 min 0 W/m 25,1 km/h (4 Bft)
06.02.2015 04:04 -2,1 C -3,3 C 85 % 1025,4 hPa 0,0 l/m 0 min 0 min 0 W/m 33,5 km/h (5 Bft)
06.02.2015 04:06 -2,1 C -3,3 C 85 % 1025,4 hPa 0,0 l/m 0 min 0 min 0 W/m 25,1 km/h (4 Bft)
06.02.2015 04:08 -2,2 C -3,3 C 85 % 1025,5 hPa 0,0 l/m 0 min 0 min 0 W/m 18,8 km/h (3 Bft)
06.02.2015 04:10 -2,2 C -3,9 C 85 % 1025,5 hPa 0,0 l/m 0 min 0 min 0 W/m 29,3 km/h (5 Bft)
06.02.2015 04:12 -2,2 C -3,3 C 85 % 1025,4 hPa 0,0 l/m 0 min 0 min 0 W/m 33,5 km/h (5 Bft)
06.02.2015 04:14 -2,2 C -3,9 C 85 % 1025,4 hPa 0,0 l/m 0 min 0 min 0 W/m 27,2 km/h (4 Bft)
06.02.2015 04:16 -2,2 C -3,3 C 85 % 1025,5 hPa 0,0 l/m 0 min 0 min 0 W/m 27,2 km/h (4 Bft)
06.02.2015 04:18 -2,2 C -3,9 C 85 % 1025,4 hPa 0,0 l/m 0 min 0 min 0 W/m 20,9 km/h (4 Bft)
06.02.2015 04:20 -2,2 C -3,9 C 85 % 1025,6 hPa 0,0 l/m 0 min 0 min 0 W/m 23,0 km/h (4 Bft)
06.02.2015 04:22 -2,2 C -3,9 C 85 % 1025,5 hPa 0,0 l/m 0 min 0 min 0 W/m 31,4 km/h (5 Bft)
06.02.2015 04:24 -2,2 C -3,3 C 85 % 1025,5 hPa 0,0 l/m 0 min 0 min 0 W/m 31,4 km/h (5 Bft)
06.02.2015 04:26 -2,2 C -3,3 C 85 % 1025,4 hPa 0,0 l/m 0 min 0 min 0 W/m 29,3 km/h (5 Bft)
06.02.2015 04:28 -2,2 C -3,3 C 85 % 1025,5 hPa 0,0 l/m 0 min 0 min 0 W/m 29,3 km/h (5 Bft)
06.02.2015 04:30 -2,2 C -3,9 C 85 % 1025,4 hPa 0,0 l/m 0 min 0 min 0 W/m 35,6 km/h (5 Bft)
06.02.2015 04:32 -2,2 C -3,9 C 85 % 1025,4 hPa 0,0 l/m 0 min 0 min 0 W/m 33,5 km/h (5 Bft)
06.02.2015 04:34 -2,2 C -3,3 C 85 % 1025,4 hPa 0,0 l/m 0 min 0 min 0 W/m 31,4 km/h (5 Bft)
06.02.2015 04:36 -2,2 C -3,3 C 86 % 1025,4 hPa 0,0 l/m 0 min 0 min 0 W/m 25,1 km/h (4 Bft)
06.02.2015 04:38 -2,2 C -3,3 C 85 % 1025,4 hPa 0,0 l/m 0 min 0 min 0 W/m 31,4 km/h (5 Bft)
06.02.2015 04:40 -2,2 C -3,3 C 86 % 1025,4 hPa 0,0 l/m 0 min 0 min 0 W/m 27,2 km/h (4 Bft)
06.02.2015 04:42 -2,2 C -3,3 C 86 % 1025,4 hPa 0,0 l/m 0 min 0 min 0 W/m 31,4 km/h (5 Bft)
06.02.2015 04:44 -2,2 C -3,3 C 85 % 1025,3 hPa 0,0 l/m 0 min 0 min 0 W/m 27,2 km/h (4 Bft)
06.02.2015 04:46 -2,2 C -3,3 C 86 % 1025,4 hPa 0,0 l/m 0 min 0 min 0 W/m 25,1 km/h (4 Bft)
06.02.2015 04:48 -2,2 C -3,3 C 86 % 1025,4 hPa 0,0 l/m 0 min 0 min 0 W/m 25,1 km/h (4 Bft)
06.02.2015 04:50 -2,2 C -3,3 C 86 % 1025,4 hPa 0,0 l/m 0 min 0 min 0 W/m 25,1 km/h (4 Bft)
06.02.2015 04:52 -2,2 C -3,9 C 86 % 1025,4 hPa 0,0 l/m 0 min 0 min 0 W/m 16,7 km/h (3 Bft)
06.02.2015 04:54 -2,2 C -3,9 C 86 % 1025,4 hPa 0,0 l/m 0 min 0 min 0 W/m 23,0 km/h (4 Bft)
06.02.2015 04:56 -2,3 C -3,9 C 86 % 1025,4 hPa 0,0 l/m 0 min 0 min 0 W/m 23,0 km/h (4 Bft)
06.02.2015 04:58 -2,3 C -3,9 C 86 % 1025,4 hPa 0,0 l/m 0 min 0 min 0 W/m 25,1 km/h (4 Bft)
06.02.2015 05:00 -2,3 C -3,9 C 86 % 1025,4 hPa 0,0 l/m 0 min 0 min 0 W/m 25,1 km/h (4 Bft)
06.02.2015 05:02 -2,3 C -3,9 C 86 % 1025,4 hPa 0,0 l/m 0 min 0 min 0 W/m 10,5 km/h (2 Bft)
06.02.2015 05:04 -2,3 C -3,9 C 86 % 1025,5 hPa 0,0 l/m 0 min 0 min 0 W/m 18,8 km/h (3 Bft)
06.02.2015 05:06 -2,3 C -3,9 C 86 % 1025,6 hPa 0,0 l/m 0 min 0 min 0 W/m 20,9 km/h (4 Bft)
06.02.2015 05:08 -2,3 C -3,9 C 86 % 1025,5 hPa 0,0 l/m 0 min 0 min 0 W/m 20,9 km/h (4 Bft)
06.02.2015 05:10 -2,4 C -3,9 C 86 % 1025,5 hPa 0,0 l/m 0 min 0 min 0 W/m 20,9 km/h (4 Bft)
06.02.2015 05:12 -2,4 C -3,9 C 86 % 1025,5 hPa 0,0 l/m 0 min 0 min 0 W/m 16,7 km/h (3 Bft)
06.02.2015 05:14 -2,4 C -3,9 C 86 % 1025,5 hPa 0,0 l/m 0 min 0 min 0 W/m 20,9 km/h (4 Bft)
06.02.2015 05:16 -2,4 C -3,9 C 86 % 1025,6 hPa 0,0 l/m 0 min 0 min 0 W/m 20,9 km/h (4 Bft)
06.02.2015 05:18 -2,4 C -3,9 C 86 % 1025,6 hPa 0,0 l/m 0 min 0 min 0 W/m 14,6 km/h (3 Bft)
06.02.2015 05:20 -2,4 C -3,9 C 86 % 1025,6 hPa 0,0 l/m 0 min 0 min 0 W/m 16,7 km/h (3 Bft)
06.02.2015 05:22 -2,5 C -3,9 C 86 % 1025,6 hPa 0,0 l/m 0 min 0 min 0 W/m 18,8 km/h (3 Bft)
06.02.2015 05:24 -2,5 C -3,9 C 86 % 1025,6 hPa 0,0 l/m 0 min 0 min 0 W/m 27,2 km/h (4 Bft)
06.02.2015 05:26 -2,5 C -3,9 C 86 % 1025,6 hPa 0,0 l/m 0 min 0 min 0 W/m 29,3 km/h (5 Bft)
06.02.2015 05:28 -2,5 C -3,9 C 86 % 1025,7 hPa 0,0 l/m 0 min 0 min 0 W/m 25,1 km/h (4 Bft)
06.02.2015 05:30 -2,5 C -3,9 C 86 % 1025,7 hPa 0,0 l/m 0 min 0 min 0 W/m 27,2 km/h (4 Bft)
06.02.2015 05:32 -2,5 C -3,9 C 86 % 1025,7 hPa 0,0 l/m 0 min 0 min 0 W/m 25,1 km/h (4 Bft)
06.02.2015 05:34 -2,6 C -3,9 C 86 % 1025,7 hPa 0,0 l/m 0 min 0 min 0 W/m 23,0 km/h (4 Bft)
06.02.2015 05:36 -2,6 C -3,9 C 86 % 1025,7 hPa 0,0 l/m 0 min 0 min 0 W/m 29,3 km/h (5 Bft)
06.02.2015 05:38 -2,6 C -3,9 C 87 % 1025,7 hPa 0,0 l/m 0 min 0 min 0 W/m 29,3 km/h (5 Bft)
06.02.2015 05:40 -2,5 C -3,9 C 87 % 1025,8 hPa 0,0 l/m 0 min 0 min 0 W/m 27,2 km/h (4 Bft)
06.02.2015 05:42 -2,6 C -3,9 C 87 % 1025,7 hPa 0,0 l/m 0 min 0 min 0 W/m 18,8 km/h (3 Bft)
06.02.2015 05:44 -2,5 C -3,9 C 87 % 1025,7 hPa 0,0 l/m 0 min 0 min 0 W/m 33,5 km/h (5 Bft)
06.02.2015 05:46 -2,6 C -3,9 C 87 % 1025,7 hPa 0,0 l/m 0 min 0 min 0 W/m 29,3 km/h (5 Bft)
06.02.2015 05:48 -2,6 C -3,9 C 87 % 1025,7 hPa 0,0 l/m 0 min 0 min 0 W/m 27,2 km/h (4 Bft)
06.02.2015 05:50 -2,6 C -3,9 C 87 % 1025,7 hPa 0,0 l/m 0 min 0 min 0 W/m 27,2 km/h (4 Bft)
06.02.2015 05:52 -2,6 C -3,9 C 87 % 1025,7 hPa 0,0 l/m 0 min 0 min 0 W/m 29,3 km/h (5 Bft)
06.02.2015 05:54 -2,6 C -3,9 C 87 % 1025,8 hPa 0,0 l/m 0 min 0 min 0 W/m 35,6 km/h (5 Bft)
06.02.2015 05:56 -2,6 C -3,9 C 87 % 1025,8 hPa 0,0 l/m 0 min 0 min 0 W/m 29,3 km/h (5 Bft)
06.02.2015 05:58 -2,5 C -3,9 C 87 % 1025,8 hPa 0,0 l/m 0 min 0 min 0 W/m 39,7 km/h (6 Bft)
06.02.2015 06:00 -2,5 C -3,9 C 87 % 1025,8 hPa 0,0 l/m 0 min 0 min 0 W/m 31,4 km/h (5 Bft)
06.02.2015 06:02 -2,5 C -3,3 C 87 % 1025,8 hPa 0,0 l/m 0 min 0 min 0 W/m 41,8 km/h (6 Bft)
06.02.2015 06:06 -2,4 C -3,9 C 87 % 1025,8 hPa 0,0 l/m 0 min 0 min 0 W/m 35,6 km/h (5 Bft)
06.02.2015 06:08 -2,4 C -3,3 C 87 % 1025,9 hPa 0,0 l/m 0 min 0 min 0 W/m 23,0 km/h (4 Bft)
06.02.2015 06:10 -2,4 C -3,3 C 87 % 1025,8 hPa 0,0 l/m 0 min 0 min 0 W/m 35,6 km/h (5 Bft)
06.02.2015 06:12 -2,4 C -3,3 C 87 % 1025,8 hPa 0,0 l/m 0 min 0 min 0 W/m 27,2 km/h (4 Bft)
06.02.2015 06:14 -2,4 C -3,3 C 87 % 1025,7 hPa 0,0 l/m 0 min 0 min 0 W/m 25,1 km/h (4 Bft)
06.02.2015 06:16 -2,4 C -3,3 C 86 % 1025,7 hPa 0,0 l/m 0 min 0 min 0 W/m 33,5 km/h (5 Bft)
06.02.2015 06:18 -2,4 C -3,3 C 86 % 1025,7 hPa 0,0 l/m 0 min 0 min 0 W/m 35,6 km/h (5 Bft)
06.02.2015 06:20 -2,4 C -3,3 C 86 % 1025,7 hPa 0,0 l/m 0 min 0 min 0 W/m 37,7 km/h (5 Bft)
06.02.2015 06:22 -2,4 C -3,9 C 86 % 1025,8 hPa 0,0 l/m 0 min 0 min 0 W/m 27,2 km/h (4 Bft)
06.02.2015 06:24 -2,4 C -3,9 C 86 % 1025,9 hPa 0,0 l/m 0 min 0 min 0 W/m 27,2 km/h (4 Bft)
06.02.2015 06:26 -2,4 C -3,9 C 86 % 1025,9 hPa 0,0 l/m 0 min 0 min 0 W/m 29,3 km/h (5 Bft)
06.02.2015 06:28 -2,4 C -3,9 C 86 % 1026,0 hPa 0,0 l/m 0 min 0 min 0 W/m 25,1 km/h (4 Bft)
06.02.2015 06:30 -2,4 C -3,9 C 86 % 1026,0 hPa 0,0 l/m 0 min 0 min 0 W/m 33,5 km/h (5 Bft)
06.02.2015 06:32 -2,4 C -3,3 C 86 % 1026,0 hPa 0,0 l/m 0 min 0 min 0 W/m 27,2 km/h (4 Bft)
06.02.2015 06:34 -2,4 C -3,3 C 86 % 1026,1 hPa 0,0 l/m 0 min 0 min 0 W/m 31,4 km/h (5 Bft)
06.02.2015 06:36 -2,4 C -3,3 C 86 % 1026,0 hPa 0,0 l/m 0 min 0 min 0 W/m 31,4 km/h (5 Bft)
06.02.2015 06:38 -2,4 C -3,3 C 86 % 1026,0 hPa 0,0 l/m 0 min 0 min 0 W/m 29,3 km/h (5 Bft)
06.02.2015 06:40 -2,4 C -3,3 C 86 % 1026,1 hPa 0,0 l/m 0 min 0 min 0 W/m 33,5 km/h (5 Bft)
06.02.2015 06:42 -2,4 C -3,3 C 86 % 1026,1 hPa 0,0 l/m 0 min 0 min 0 W/m 29,3 km/h (5 Bft)
06.02.2015 06:44 -2,4 C -3,3 C 86 % 1026,1 hPa 0,0 l/m 0 min 0 min 0 W/m 35,6 km/h (5 Bft)
06.02.2015 06:46 -2,4 C -3,3 C 86 % 1026,1 hPa 0,0 l/m 0 min 0 min 0 W/m 29,3 km/h (5 Bft)
06.02.2015 06:48 -2,3 C -3,3 C 86 % 1026,1 hPa 0,0 l/m 0 min 0 min 0 W/m 20,9 km/h (4 Bft)
06.02.2015 06:50 -2,3 C -3,3 C 86 % 1026,0 hPa 0,0 l/m 0 min 0 min 0 W/m 29,3 km/h (5 Bft)
06.02.2015 06:52 -2,3 C -3,3 C 86 % 1026,1 hPa 0,0 l/m 0 min 0 min 0 W/m 31,4 km/h (5 Bft)
06.02.2015 06:54 -2,3 C -3,3 C 86 % 1026,1 hPa 0,0 l/m 0 min 0 min 0 W/m 35,6 km/h (5 Bft)
06.02.2015 06:56 -2,3 C -3,3 C 86 % 1026,1 hPa 0,0 l/m 0 min 0 min 0 W/m 31,4 km/h (5 Bft)
06.02.2015 06:58 -2,3 C -3,3 C 86 % 1026,1 hPa 0,0 l/m 0 min 0 min 0 W/m 27,2 km/h (4 Bft)
06.02.2015 07:00 -2,3 C -3,3 C 86 % 1026,1 hPa 0,0 l/m 0 min 0 min 0 W/m 20,9 km/h (4 Bft)
06.02.2015 07:02 -2,3 C -3,3 C 86 % 1026,0 hPa 0,0 l/m 0 min 0 min 0 W/m 31,4 km/h (5 Bft)
06.02.2015 07:04 -2,3 C -3,3 C 86 % 1026,0 hPa 0,0 l/m 0 min 0 min 0 W/m 29,3 km/h (5 Bft)
06.02.2015 07:06 -2,3 C -3,3 C 86 % 1025,9 hPa 0,0 l/m 0 min 0 min 0 W/m 33,5 km/h (5 Bft)
06.02.2015 07:08 -2,3 C -3,3 C 86 % 1026,1 hPa 0,0 l/m 0 min 0 min 0 W/m 29,3 km/h (5 Bft)
06.02.2015 07:10 -2,3 C -3,3 C 86 % 1026,0 hPa 0,0 l/m 0 min 0 min 0 W/m 18,8 km/h (3 Bft)
06.02.2015 07:12 -2,3 C -3,3 C 86 % 1026,1 hPa 0,0 l/m 0 min 0 min 0 W/m 20,9 km/h (4 Bft)
06.02.2015 07:14 -2,3 C -3,3 C 85 % 1026,1 hPa 0,0 l/m 0 min 0 min 0 W/m 31,4 km/h (5 Bft)
06.02.2015 07:16 -2,3 C -3,3 C 85 % 1026,1 hPa 0,0 l/m 0 min 0 min 0 W/m 41,8 km/h (6 Bft)
06.02.2015 07:18 -2,3 C -3,3 C 85 % 1026,2 hPa 0,0 l/m 0 min 0 min 0 W/m 31,4 km/h (5 Bft)
06.02.2015 07:20 -2,3 C -3,3 C 85 % 1026,3 hPa 0,0 l/m 0 min 0 min 0 W/m 33,5 km/h (5 Bft)
06.02.2015 07:22 -2,2 C -3,3 C 85 % 1026,3 hPa 0,0 l/m 0 min 0 min 0 W/m 31,4 km/h (5 Bft)
06.02.2015 07:24 -2,3 C -3,3 C 85 % 1026,2 hPa 0,0 l/m 0 min 0 min 0 W/m 29,3 km/h (5 Bft)
06.02.2015 07:26 -2,2 C -3,3 C 85 % 1026,2 hPa 0,0 l/m 0 min 0 min 0 W/m 23,0 km/h (4 Bft)
06.02.2015 07:28 -2,3 C -3,3 C 85 % 1026,3 hPa 0,0 l/m 0 min 0 min 0 W/m 23,0 km/h (4 Bft)
06.02.2015 07:30 -2,2 C -3,3 C 85 % 1026,4 hPa 0,0 l/m 0 min 0 min 0 W/m 20,9 km/h (4 Bft)
06.02.2015 07:32 -2,2 C -3,3 C 85 % 1026,4 hPa 0,0 l/m 0 min 0 min 0 W/m 27,2 km/h (4 Bft)
06.02.2015 07:34 -2,2 C -3,3 C 85 % 1026,5 hPa 0,0 l/m 0 min 0 min 0 W/m 20,9 km/h (4 Bft)
06.02.2015 07:36 -2,3 C -3,3 C 85 % 1026,4 hPa 0,0 l/m 0 min 0 min 0 W/m 25,1 km/h (4 Bft)
06.02.2015 07:38 -2,2 C -3,3 C 85 % 1026,5 hPa 0,0 l/m 0 min 0 min 0 W/m 39,7 km/h (6 Bft)
06.02.2015 07:40 -2,3 C -3,3 C 85 % 1026,4 hPa 0,0 l/m 0 min 0 min 0 W/m 20,9 km/h (4 Bft)
06.02.2015 07:42 -2,3 C -3,3 C 85 % 1026,4 hPa 0,0 l/m 0 min 0 min 0 W/m 27,2 km/h (4 Bft)
06.02.2015 07:44 -2,3 C -3,3 C 85 % 1026,5 hPa 0,0 l/m 0 min 0 min 0 W/m 35,6 km/h (5 Bft)
06.02.2015 07:46 -2,3 C -3,9 C 85 % 1026,4 hPa 0,0 l/m 0 min 0 min 0 W/m 27,2 km/h (4 Bft)
06.02.2015 07:48 -2,3 C -3,9 C 85 % 1026,5 hPa 0,0 l/m 0 min 0 min 0 W/m 27,2 km/h (4 Bft)
06.02.2015 07:50 -2,4 C -3,9 C 85 % 1026,5 hPa 0,0 l/m 0 min 0 min 0 W/m 25,1 km/h (4 Bft)
06.02.2015 07:52 -2,4 C -3,9 C 85 % 1026,5 hPa 0,0 l/m 0 min 0 min 0 W/m 20,9 km/h (4 Bft)
06.02.2015 07:54 -2,4 C -3,9 C 85 % 1026,5 hPa 0,0 l/m 0 min 0 min 0 W/m 27,2 km/h (4 Bft)
06.02.2015 07:56 -2,4 C -3,9 C 85 % 1026,5 hPa 0,0 l/m 0 min 0 min 5 W/m 23,0 km/h (4 Bft)
06.02.2015 07:58 -2,5 C -3,9 C 85 % 1026,6 hPa 0,0 l/m 0 min 0 min 5 W/m 29,3 km/h (5 Bft)
06.02.2015 08:00 -2,5 C -3,9 C 85 % 1026,6 hPa 0,0 l/m 0 min 0 min 5 W/m 23,0 km/h (4 Bft)
06.02.2015 08:02 -2,5 C -3,9 C 85 % 1026,6 hPa 0,0 l/m 0 min 0 min 7 W/m 25,1 km/h (4 Bft)
06.02.2015 08:04 -2,6 C -3,9 C 85 % 1026,6 hPa 0,0 l/m 0 min 0 min 7 W/m 27,2 km/h (4 Bft)
06.02.2015 08:06 -2,6 C -3,9 C 85 % 1026,5 hPa 0,0 l/m 0 min 0 min 7 W/m 31,4 km/h (5 Bft)
06.02.2015 08:08 -2,6 C -3,9 C 86 % 1026,5 hPa 0,0 l/m 0 min 0 min 8 W/m 16,7 km/h (3 Bft)
06.02.2015 08:10 -2,6 C -3,9 C 86 % 1026,5 hPa 0,0 l/m 0 min 0 min 9 W/m 16,7 km/h (3 Bft)
06.02.2015 08:12 -2,6 C -3,9 C 86 % 1026,5 hPa 0,0 l/m 0 min 0 min 11 W/m 23,0 km/h (4 Bft)
06.02.2015 08:14 -2,6 C -3,9 C 86 % 1026,5 hPa 0,0 l/m 0 min 0 min 11 W/m 20,9 km/h (4 Bft)
06.02.2015 08:16 -2,6 C -3,9 C 86 % 1026,5 hPa 0,0 l/m 0 min 0 min 12 W/m 12,6 km/h (3 Bft)
06.02.2015 08:18 -2,7 C -3,9 C 86 % 1026,5 hPa 0,0 l/m 2 min 0 min 15 W/m 25,1 km/h (4 Bft)
06.02.2015 08:20 -2,7 C -3,9 C 86 % 1026,5 hPa 0,0 l/m 2 min 0 min 17 W/m 31,4 km/h (5 Bft)
06.02.2015 08:22 -2,7 C -3,9 C 86 % 1026,4 hPa 0,0 l/m 2 min 0 min 20 W/m 33,5 km/h (5 Bft)
06.02.2015 08:24 -2,7 C -3,9 C 86 % 1026,4 hPa 0,0 l/m 2 min 0 min 19 W/m 23,0 km/h (4 Bft)
06.02.2015 08:26 -2,7 C -3,9 C 86 % 1026,4 hPa 0,0 l/m 2 min 0 min 20 W/m 14,6 km/h (3 Bft)
06.02.2015 08:28 -2,7 C -3,9 C 86 % 1026,4 hPa 0,0 l/m 0 min 0 min 20 W/m 20,9 km/h (4 Bft)
06.02.2015 08:30 -2,7 C -3,9 C 86 % 1026,6 hPa 0,0 l/m 0 min 0 min 22 W/m 31,4 km/h (5 Bft)
06.02.2015 08:32 -2,7 C -3,9 C 86 % 1026,5 hPa 0,0 l/m 0 min 0 min 25 W/m 31,4 km/h (5 Bft)
06.02.2015 08:34 -2,7 C -3,9 C 86 % 1026,5 hPa 0,0 l/m 0 min 0 min 25 W/m 29,3 km/h (5 Bft)
06.02.2015 08:36 -2,7 C -3,9 C 86 % 1026,6 hPa 0,0 l/m 0 min 0 min 22 W/m 29,3 km/h (5 Bft)
06.02.2015 08:38 -2,7 C -3,9 C 86 % 1026,7 hPa 0,0 l/m 0 min 0 min 23 W/m 20,9 km/h (4 Bft)
06.02.2015 08:40 -2,7 C -3,9 C 86 % 1026,7 hPa 0,0 l/m 0 min 0 min 33 W/m 23,0 km/h (4 Bft)
06.02.2015 08:42 -2,7 C -3,3 C 86 % 1026,7 hPa 0,0 l/m 0 min 0 min 34 W/m 23,0 km/h (4 Bft)
06.02.2015 08:44 -2,6 C -3,3 C 87 % 1026,7 hPa 0,0 l/m 0 min 0 min 37 W/m 27,2 km/h (4 Bft)
06.02.2015 08:46 -2,7 C -3,3 C 87 % 1026,8 hPa 0,0 l/m 0 min 0 min 40 W/m 23,0 km/h (4 Bft)
06.02.2015 08:48 -2,6 C -3,3 C 87 % 1026,8 hPa 0,0 l/m 2 min 0 min 54 W/m 31,4 km/h (5 Bft)
06.02.2015 08:50 -2,6 C -3,3 C 87 % 1026,7 hPa 0,0 l/m 2 min 0 min 58 W/m 31,4 km/h (5 Bft)
06.02.2015 08:52 -2,6 C -3,3 C 87 % 1026,8 hPa 0,0 l/m 2 min 0 min 59 W/m 29,3 km/h (5 Bft)
06.02.2015 08:54 -2,6 C -3,3 C 87 % 1026,8 hPa 0,0 l/m 2 min 0 min 58 W/m 29,3 km/h (5 Bft)
06.02.2015 08:56 -2,6 C -3,3 C 87 % 1026,8 hPa 0,0 l/m 2 min 0 min 62 W/m 18,8 km/h (3 Bft)
06.02.2015 08:58 -2,6 C -3,3 C 87 % 1026,8 hPa 0,0 l/m 2 min 0 min 59 W/m 27,2 km/h (4 Bft)
06.02.2015 09:00 -2,6 C -3,3 C 87 % 1026,8 hPa 0,0 l/m 0 min 0 min 55 W/m 37,7 km/h (5 Bft)
06.02.2015 09:02 -2,6 C -3,3 C 87 % 1026,8 hPa 0,0 l/m 0 min 0 min 61 W/m 29,3 km/h (5 Bft)
06.02.2015 09:04 -2,6 C -3,3 C 87 % 1026,9 hPa 0,0 l/m 2 min 0 min 74 W/m 27,2 km/h (4 Bft)
06.02.2015 09:06 -2,6 C -3,3 C 87 % 1026,9 hPa 0,0 l/m 2 min 0 min 85 W/m 31,4 km/h (5 Bft)
06.02.2015 09:08 -2,6 C -3,3 C 86 % 1027,0 hPa 0,0 l/m 2 min 0 min 83 W/m 25,1 km/h (4 Bft)
06.02.2015 09:10 -2,6 C -3,3 C 86 % 1026,9 hPa 0,0 l/m 2 min 0 min 89 W/m 20,9 km/h (4 Bft)
06.02.2015 09:12 -2,6 C -3,3 C 86 % 1027,0 hPa 0,0 l/m 2 min 0 min 88 W/m 33,5 km/h (5 Bft)
06.02.2015 09:14 -2,6 C -3,3 C 86 % 1027,1 hPa 0,0 l/m 2 min 0 min 94 W/m 23,0 km/h (4 Bft)
06.02.2015 09:16 -2,6 C -2,8 C 86 % 1027,1 hPa 0,0 l/m 2 min 0 min 88 W/m 23,0 km/h (4 Bft)
06.02.2015 09:18 -2,5 C -2,8 C 86 % 1027,1 hPa 0,0 l/m 2 min 0 min 94 W/m 12,6 km/h (3 Bft)
06.02.2015 09:20 -2,5 C -2,8 C 86 % 1027,1 hPa 0,0 l/m 2 min 0 min 98 W/m 27,2 km/h (4 Bft)
06.02.2015 09:22 -2,4 C -2,8 C 86 % 1027,1 hPa 0,0 l/m 0 min 0 min 80 W/m 31,4 km/h (5 Bft)
06.02.2015 09:24 -2,4 C -2,8 C 86 % 1027,1 hPa 0,0 l/m 0 min 0 min 78 W/m 35,6 km/h (5 Bft)
06.02.2015 09:26 -2,4 C -2,8 C 86 % 1027,1 hPa 0,0 l/m 0 min 0 min 75 W/m 35,6 km/h (5 Bft)
06.02.2015 09:28 -2,4 C -3,3 C 85 % 1027,0 hPa 0,0 l/m 2 min 0 min 93 W/m 33,5 km/h (5 Bft)
06.02.2015 09:30 -2,4 C -3,3 C 85 % 1027,1 hPa 0,0 l/m 2 min 0 min 102 W/m 25,1 km/h (4 Bft)
06.02.2015 09:32 -2,3 C -2,8 C 85 % 1027,0 hPa 0,0 l/m 2 min 0 min 107 W/m 33,5 km/h (5 Bft)
06.02.2015 09:34 -2,3 C -2,8 C 85 % 1027,1 hPa 0,0 l/m 2 min 0 min 110 W/m 25,1 km/h (4 Bft)
06.02.2015 09:36 -2,3 C -2,8 C 85 % 1027,0 hPa 0,0 l/m 2 min 0 min 115 W/m 20,9 km/h (4 Bft)
06.02.2015 09:38 -2,3 C -2,8 C 85 % 1027,0 hPa 0,0 l/m 2 min 0 min 126 W/m 35,6 km/h (5 Bft)
06.02.2015 09:40 -2,3 C -2,8 C 85 % 1027,1 hPa 0,0 l/m 2 min 0 min 145 W/m 35,6 km/h (5 Bft)
06.02.2015 09:42 -2,2 C -2,8 C 85 % 1027,1 hPa 0,0 l/m 2 min 0 min 148 W/m 29,3 km/h (5 Bft)
06.02.2015 09:44 -2,2 C -2,8 C 85 % 1027,1 hPa 0,0 l/m 2 min 0 min 136 W/m 27,2 km/h (4 Bft)
06.02.2015 09:46 -2,2 C -2,8 C 84 % 1027,0 hPa 0,0 l/m 2 min 0 min 131 W/m 27,2 km/h (4 Bft)
06.02.2015 09:48 -2,1 C -2,8 C 84 % 1027,0 hPa 0,0 l/m 2 min 0 min 141 W/m 35,6 km/h (5 Bft)
06.02.2015 09:50 -2,1 C -2,8 C 84 % 1027,1 hPa 0,0 l/m 2 min 0 min 146 W/m 29,3 km/h (5 Bft)
06.02.2015 09:52 -2,1 C -2,8 C 84 % 1027,1 hPa 0,0 l/m 2 min 0 min 177 W/m 31,4 km/h (5 Bft)
06.02.2015 09:54 -2,0 C -2,8 C 84 % 1027,0 hPa 0,0 l/m 2 min 0 min 163 W/m 27,2 km/h (4 Bft)
06.02.2015 09:56 -1,9 C -2,2 C 84 % 1027,0 hPa 0,0 l/m 2 min 0 min 155 W/m 27,2 km/h (4 Bft)
06.02.2015 09:58 -1,9 C -2,2 C 84 % 1027,0 hPa 0,0 l/m 2 min 0 min 150 W/m 27,2 km/h (4 Bft)
06.02.2015 10:00 -1,8 C -2,2 C 84 % 1027,1 hPa 0,0 l/m 2 min 0 min 147 W/m 31,4 km/h (5 Bft)
06.02.2015 10:02 -1,8 C -2,2 C 84 % 1027,1 hPa 0,0 l/m 2 min 0 min 141 W/m 27,2 km/h (4 Bft)
06.02.2015 10:04 -1,7 C -2,2 C 84 % 1027,0 hPa 0,0 l/m 2 min 0 min 127 W/m 31,4 km/h (5 Bft)
06.02.2015 10:06 -1,7 C -2,2 C 83 % 1027,2 hPa 0,0 l/m 2 min 0 min 126 W/m 35,6 km/h (5 Bft)
06.02.2015 10:08 -1,7 C -2,2 C 83 % 1027,1 hPa 0,0 l/m 2 min 0 min 200 W/m 33,5 km/h (5 Bft)
06.02.2015 10:10 -1,6 C -2,2 C 83 % 1027,0 hPa 0,0 l/m 2 min 0 min 158 W/m 41,8 km/h (6 Bft)
06.02.2015 10:12 -1,6 C -2,2 C 83 % 1027,0 hPa 0,0 l/m 2 min 0 min 160 W/m 31,4 km/h (5 Bft)
06.02.2015 10:14 -1,6 C -2,2 C 83 % 1027,0 hPa 0,0 l/m 2 min 0 min 165 W/m 31,4 km/h (5 Bft)
06.02.2015 10:16 -1,5 C -1,7 C 83 % 1027,0 hPa 0,0 l/m 2 min 0 min 158 W/m 29,3 km/h (5 Bft)
06.02.2015 10:18 -1,4 C -1,7 C 83 % 1027,0 hPa 0,0 l/m 2 min 0 min 145 W/m 37,7 km/h (5 Bft)
06.02.2015 10:20 -1,4 C -1,7 C 83 % 1027,0 hPa 0,0 l/m 2 min 0 min 222 W/m 27,2 km/h (4 Bft)
06.02.2015 10:22 -1,4 C -1,7 C 82 % 1027,1 hPa 0,0 l/m 2 min 0 min 178 W/m 31,4 km/h (5 Bft)
06.02.2015 10:24 -1,3 C -1,7 C 82 % 1027,1 hPa 0,0 l/m 2 min 0 min 210 W/m 33,5 km/h (5 Bft)
06.02.2015 10:26 -1,3 C -1,7 C 82 % 1027,1 hPa 0,0 l/m 2 min 0 min 174 W/m 39,7 km/h (6 Bft)
06.02.2015 10:28 -1,3 C -1,7 C 82 % 1027,0 hPa 0,0 l/m 2 min 0 min 154 W/m 41,8 km/h (6 Bft)
06.02.2015 10:30 -1,3 C -1,7 C 82 % 1027,1 hPa 0,0 l/m 2 min 0 min 165 W/m 39,7 km/h (6 Bft)
06.02.2015 10:32 -1,2 C -1,7 C 82 % 1027,1 hPa 0,0 l/m 2 min 0 min 147 W/m 27,2 km/h (4 Bft)
06.02.2015 10:34 -1,2 C -1,7 C 82 % 1027,2 hPa 0,0 l/m 2 min 0 min 152 W/m 27,2 km/h (4 Bft)
06.02.2015 10:36 -1,2 C -1,7 C 82 % 1027,1 hPa 0,0 l/m 0 min 0 min 141 W/m 37,7 km/h (5 Bft)
06.02.2015 10:38 -1,2 C -1,7 C 82 % 1027,2 hPa 0,0 l/m 0 min 0 min 132 W/m 35,6 km/h (5 Bft)
06.02.2015 10:40 -1,2 C -1,7 C 81 % 1027,2 hPa 0,0 l/m 2 min 0 min 154 W/m 41,8 km/h (6 Bft)
06.02.2015 10:42 -1,2 C -1,7 C 81 % 1027,4 hPa 0,0 l/m 0 min 0 min 145 W/m 29,3 km/h (5 Bft)
06.02.2015 10:44 -1,3 C -1,7 C 81 % 1027,2 hPa 0,0 l/m 2 min 0 min 175 W/m 29,3 km/h (5 Bft)
06.02.2015 10:46 -1,2 C -1,7 C 81 % 1027,2 hPa 0,0 l/m 2 min 0 min 200 W/m 23,0 km/h (4 Bft)
06.02.2015 10:48 -1,2 C -1,7 C 82 % 1027,1 hPa 0,0 l/m 2 min 0 min 279 W/m 23,0 km/h (4 Bft)
06.02.2015 10:50 -1,2 C -1,7 C 82 % 1027,1 hPa 0,0 l/m 2 min 0 min 275 W/m 33,5 km/h (5 Bft)
06.02.2015 10:52 -1,2 C -1,7 C 82 % 1027,1 hPa 0,0 l/m 2 min 0 min 218 W/m 23,0 km/h (4 Bft)
06.02.2015 10:54 -1,1 C -1,7 C 82 % 1027,0 hPa 0,0 l/m 2 min 0 min 278 W/m 29,3 km/h (5 Bft)
06.02.2015 10:56 -1,1 C -1,7 C 82 % 1027,0 hPa 0,0 l/m 2 min 0 min 308 W/m 31,4 km/h (5 Bft)
06.02.2015 10:58 -1,0 C -1,7 C 81 % 1027,0 hPa 0,0 l/m 2 min 0 min 275 W/m 31,4 km/h (5 Bft)
06.02.2015 11:00 -0,9 C -1,7 C 81 % 1027,0 hPa 0,0 l/m 2 min 0 min 308 W/m 39,7 km/h (6 Bft)
06.02.2015 11:02 -0,9 C -1,7 C 81 % 1027,0 hPa 0,0 l/m 2 min 0 min 280 W/m 39,7 km/h (6 Bft)
06.02.2015 11:04 -0,8 C -1,7 C 81 % 1027,0 hPa 0,0 l/m 2 min 0 min 280 W/m 25,1 km/h (4 Bft)
06.02.2015 11:06 -0,8 C -1,7 C 81 % 1027,1 hPa 0,0 l/m 2 min 0 min 271 W/m 31,4 km/h (5 Bft)
06.02.2015 11:08 -0,7 C -1,7 C 80 % 1027,0 hPa 0,0 l/m 2 min 0 min 314 W/m 35,6 km/h (5 Bft)
06.02.2015 11:10 -0,7 C -1,7 C 80 % 1027,1 hPa 0,0 l/m 2 min 0 min 300 W/m 39,7 km/h (6 Bft)
06.02.2015 11:12 -0,6 C -1,7 C 80 % 1027,1 hPa 0,0 l/m 2 min 0 min 313 W/m 56,5 km/h (7 Bft)
06.02.2015 11:14 -0,5 C -1,7 C 80 % 1027,1 hPa 0,0 l/m 2 min 0 min 325 W/m 39,7 km/h (6 Bft)
06.02.2015 11:16 -0,4 C -1,7 C 79 % 1027,1 hPa 0,0 l/m 2 min 0 min 320 W/m 46,0 km/h (6 Bft)
06.02.2015 11:18 -0,4 C -1,7 C 79 % 1027,1 hPa 0,0 l/m 2 min 0 min 318 W/m 35,6 km/h (5 Bft)
06.02.2015 11:20 -0,3 C -1,7 C 79 % 1027,1 hPa 0,0 l/m 2 min 0 min 325 W/m 35,6 km/h (5 Bft)
06.02.2015 11:22 -0,3 C -1,1 C 78 % 1027,1 hPa 0,0 l/m 2 min 0 min 324 W/m 31,4 km/h (5 Bft)
06.02.2015 11:24 -0,2 C -1,1 C 78 % 1027,1 hPa 0,0 l/m 2 min 0 min 329 W/m 29,3 km/h (5 Bft)
06.02.2015 11:26 -0,2 C -1,1 C 78 % 1027,1 hPa 0,0 l/m 2 min 0 min 330 W/m 35,6 km/h (5 Bft)
06.02.2015 11:28 -0,1 C -1,1 C 78 % 1027,0 hPa 0,0 l/m 2 min 0 min 331 W/m 29,3 km/h (5 Bft)
06.02.2015 11:30 0,0 C -1,1 C 78 % 1027,0 hPa 0,0 l/m 2 min 0 min 326 W/m 27,2 km/h (4 Bft)
06.02.2015 11:32 0,1 C -1,1 C 78 % 1027,1 hPa 0,0 l/m 2 min 0 min 335 W/m 20,9 km/h (4 Bft)
06.02.2015 11:34 0,1 C -0,6 C 77 % 1027,2 hPa 0,0 l/m 2 min 0 min 336 W/m 20,9 km/h (4 Bft)
06.02.2015 11:36 0,2 C -0,6 C 77 % 1027,1 hPa 0,0 l/m 2 min 0 min 340 W/m 43,9 km/h (6 Bft)
06.02.2015 11:38 0,3 C -0,6 C 77 % 1027,2 hPa 0,0 l/m 2 min 0 min 346 W/m 29,3 km/h (5 Bft)
06.02.2015 11:40 0,4 C -0,6 C 77 % 1027,2 hPa 0,0 l/m 2 min 0 min 350 W/m 31,4 km/h (5 Bft)
06.02.2015 11:42 0,5 C -0,6 C 77 % 1027,1 hPa 0,0 l/m 2 min 0 min 349 W/m 48,1 km/h (6 Bft)
06.02.2015 11:44 0,5 C -0,6 C 76 % 1027,2 hPa 0,0 l/m 2 min 0 min 351 W/m 31,4 km/h (5 Bft)
06.02.2015 11:46 0,6 C -0,6 C 76 % 1027,2 hPa 0,0 l/m 2 min 0 min 355 W/m 31,4 km/h (5 Bft)
06.02.2015 11:48 0,7 C -0,6 C 76 % 1027,2 hPa 0,0 l/m 2 min 0 min 357 W/m 37,7 km/h (5 Bft)
06.02.2015 11:50 0,7 C -0,6 C 75 % 1027,1 hPa 0,0 l/m 2 min 0 min 358 W/m 33,5 km/h (5 Bft)
06.02.2015 11:52 0,7 C -0,6 C 75 % 1027,2 hPa 0,0 l/m 2 min 0 min 359 W/m 33,5 km/h (5 Bft)
06.02.2015 11:54 0,8 C -0,6 C 75 % 1027,2 hPa 0,0 l/m 2 min 0 min 360 W/m 41,8 km/h (6 Bft)
06.02.2015 11:56 0,8 C -0,6 C 75 % 1027,1 hPa 0,0 l/m 2 min 0 min 355 W/m 31,4 km/h (5 Bft)
06.02.2015 11:58 0,9 C -0,6 C 74 % 1027,3 hPa 0,0 l/m 2 min 0 min 364 W/m 39,7 km/h (6 Bft)
06.02.2015 12:00 0,9 C -0,6 C 74 % 1027,4 hPa 0,0 l/m 2 min 0 min 357 W/m 37,7 km/h (5 Bft)
06.02.2015 12:02 1,0 C -0,6 C 74 % 1027,3 hPa 0,0 l/m 2 min 0 min 348 W/m 35,6 km/h (5 Bft)
06.02.2015 12:05 1,1 C -0,6 C 73 % 1027,3 hPa 0,0 l/m 2 min 0 min 362 W/m 35,6 km/h (5 Bft)
06.02.2015 12:06 1,1 C -0,6 C 73 % 1027,2 hPa 0,0 l/m 1 min 0 min 354 W/m 35,6 km/h (5 Bft)
06.02.2015 12:08 1,1 C -0,6 C 73 % 1027,2 hPa 0,0 l/m 2 min 0 min 358 W/m 35,6 km/h (5 Bft)
06.02.2015 12:10 1,2 C 0,0 C 73 % 1027,3 hPa 0,0 l/m 2 min 0 min 371 W/m 27,2 km/h (4 Bft)
06.02.2015 12:12 1,2 C 0,0 C 73 % 1027,2 hPa 0,0 l/m 2 min 0 min 371 W/m 35,6 km/h (5 Bft)
06.02.2015 12:14 1,2 C 0,0 C 73 % 1027,2 hPa 0,0 l/m 2 min 0 min 369 W/m 33,5 km/h (5 Bft)
06.02.2015 12:16 1,3 C 0,0 C 73 % 1027,2 hPa 0,0 l/m 2 min 0 min 368 W/m 33,5 km/h (5 Bft)
06.02.2015 12:18 1,3 C 0,0 C 73 % 1027,2 hPa 0,0 l/m 2 min 0 min 374 W/m 39,7 km/h (6 Bft)
06.02.2015 12:20 1,3 C 0,0 C 73 % 1027,2 hPa 0,0 l/m 2 min 0 min 368 W/m 43,9 km/h (6 Bft)
06.02.2015 12:22 1,4 C 0,0 C 73 % 1027,2 hPa 0,0 l/m 2 min 0 min 364 W/m 29,3 km/h (5 Bft)
06.02.2015 12:24 1,4 C 0,0 C 73 % 1027,1 hPa 0,0 l/m 2 min 0 min 364 W/m 48,1 km/h (6 Bft)
06.02.2015 12:26 1,4 C 0,0 C 73 % 1027,3 hPa 0,0 l/m 2 min 0 min 368 W/m 46,0 km/h (6 Bft)
06.02.2015 12:28 1,5 C 0,0 C 73 % 1027,2 hPa 0,0 l/m 2 min 0 min 371 W/m 37,7 km/h (5 Bft)
06.02.2015 12:30 1,5 C 0,0 C 72 % 1027,1 hPa 0,0 l/m 2 min 0 min 366 W/m 46,0 km/h (6 Bft)
06.02.2015 12:32 1,6 C 0,0 C 72 % 1027,0 hPa 0,0 l/m 2 min 0 min 369 W/m 25,1 km/h (4 Bft)
06.02.2015 12:34 1,6 C 0,0 C 73 % 1027,2 hPa 0,0 l/m 2 min 0 min 369 W/m 29,3 km/h (5 Bft)
06.02.2015 12:36 1,6 C 0,0 C 73 % 1027,1 hPa 0,0 l/m 2 min 0 min 369 W/m 31,4 km/h (5 Bft)
06.02.2015 12:38 1,7 C 0,0 C 72 % 1027,2 hPa 0,0 l/m 2 min 0 min 371 W/m 35,6 km/h (5 Bft)
06.02.2015 12:40 1,7 C 0,0 C 72 % 1027,0 hPa 0,0 l/m 2 min 0 min 376 W/m 31,4 km/h (5 Bft)
06.02.2015 12:42 1,8 C 0,0 C 72 % 1027,1 hPa 0,0 l/m 2 min 0 min 379 W/m 37,7 km/h (5 Bft)
06.02.2015 12:44 1,8 C 0,0 C 72 % 1027,0 hPa 0,0 l/m 2 min 0 min 382 W/m 37,7 km/h (5 Bft)
06.02.2015 12:46 1,8 C 0,0 C 72 % 1027,1 hPa 0,0 l/m 2 min 0 min 377 W/m 37,7 km/h (5 Bft)
06.02.2015 12:48 1,8 C 0,6 C 72 % 1027,1 hPa 0,0 l/m 2 min 0 min 377 W/m 27,2 km/h (4 Bft)
06.02.2015 12:50 1,9 C 0,6 C 72 % 1027,1 hPa 0,0 l/m 2 min 0 min 375 W/m 33,5 km/h (5 Bft)
06.02.2015 12:52 1,9 C 0,0 C 72 % 1027,1 hPa 0,0 l/m 2 min 0 min 378 W/m 25,1 km/h (4 Bft)
06.02.2015 12:54 1,9 C 0,0 C 72 % 1027,0 hPa 0,0 l/m 2 min 0 min 380 W/m 33,5 km/h (5 Bft)
06.02.2015 12:56 1,9 C 0,6 C 72 % 1027,1 hPa 0,0 l/m 2 min 0 min 379 W/m 37,7 km/h (5 Bft)
06.02.2015 12:58 1,9 C 0,6 C 72 % 1027,1 hPa 0,0 l/m 2 min 0 min 377 W/m 27,2 km/h (4 Bft)
06.02.2015 13:00 2,0 C 0,6 C 72 % 1027,2 hPa 0,0 l/m 2 min 0 min 380 W/m 31,4 km/h (5 Bft)
06.02.2015 13:02 2,0 C 0,6 C 72 % 1027,2 hPa 0,0 l/m 2 min 0 min 374 W/m 25,1 km/h (4 Bft)
06.02.2015 13:04 2,0 C 0,6 C 72 % 1027,2 hPa 0,0 l/m 2 min 0 min 371 W/m 18,8 km/h (3 Bft)
06.02.2015 13:06 2,1 C 0,6 C 72 % 1027,1 hPa 0,0 l/m 2 min 0 min 377 W/m 29,3 km/h (5 Bft)
06.02.2015 13:08 2,1 C 0,6 C 72 % 1027,2 hPa 0,0 l/m 2 min 0 min 375 W/m 29,3 km/h (5 Bft)
06.02.2015 13:10 2,1 C 0,6 C 72 % 1027,2 hPa 0,0 l/m 2 min 0 min 373 W/m 23,0 km/h (4 Bft)
06.02.2015 13:12 2,2 C 0,6 C 72 % 1027,3 hPa 0,0 l/m 2 min 0 min 368 W/m 20,9 km/h (4 Bft)
06.02.2015 13:14 2,3 C 0,6 C 72 % 1027,3 hPa 0,0 l/m 2 min 0 min 367 W/m 27,2 km/h (4 Bft)
06.02.2015 13:16 2,3 C 0,6 C 71 % 1027,3 hPa 0,0 l/m 2 min 0 min 365 W/m 29,3 km/h (5 Bft)
06.02.2015 13:18 2,4 C 0,6 C 71 % 1027,3 hPa 0,0 l/m 2 min 0 min 366 W/m 29,3 km/h (5 Bft)
06.02.2015 13:20 2,4 C 0,6 C 70 % 1027,2 hPa 0,0 l/m 2 min 0 min 363 W/m 27,2 km/h (4 Bft)
06.02.2015 13:22 2,5 C 0,6 C 70 % 1027,3 hPa 0,0 l/m 2 min 0 min 364 W/m 25,1 km/h (4 Bft)
06.02.2015 13:24 2,6 C 0,6 C 70 % 1027,2 hPa 0,0 l/m 2 min 0 min 361 W/m 35,6 km/h (5 Bft)
06.02.2015 13:26 2,6 C 0,6 C 69 % 1027,2 hPa 0,0 l/m 2 min 0 min 359 W/m 48,1 km/h (6 Bft)
06.02.2015 13:28 2,6 C 0,6 C 69 % 1027,2 hPa 0,0 l/m 2 min 0 min 360 W/m 50,2 km/h (7 Bft)
06.02.2015 13:30 2,5 C 0,6 C 69 % 1027,3 hPa 0,0 l/m 2 min 0 min 358 W/m 37,7 km/h (5 Bft)
06.02.2015 13:32 2,5 C 0,6 C 68 % 1027,2 hPa 0,0 l/m 2 min 0 min 352 W/m 31,4 km/h (5 Bft)
06.02.2015 13:34 2,5 C 0,6 C 68 % 1027,2 hPa 0,0 l/m 2 min 0 min 348 W/m 31,4 km/h (5 Bft)
06.02.2015 13:36 2,5 C 0,6 C 69 % 1027,2 hPa 0,0 l/m 2 min 0 min 350 W/m 46,0 km/h (6 Bft)
06.02.2015 13:38 2,5 C 0,6 C 68 % 1027,2 hPa 0,0 l/m 2 min 0 min 348 W/m 48,1 km/h (6 Bft)
06.02.2015 13:40 2,5 C 0,6 C 67 % 1027,2 hPa 0,0 l/m 2 min 0 min 351 W/m 37,7 km/h (5 Bft)
06.02.2015 13:42 2,5 C 0,6 C 67 % 1027,1 hPa 0,0 l/m 2 min 0 min 350 W/m 33,5 km/h (5 Bft)
06.02.2015 13:44 2,5 C 0,6 C 67 % 1027,1 hPa 0,0 l/m 2 min 0 min 345 W/m 31,4 km/h (5 Bft)
06.02.2015 13:46 2,5 C 0,6 C 68 % 1027,0 hPa 0,0 l/m 2 min 0 min 344 W/m 25,1 km/h (4 Bft)
06.02.2015 13:48 2,6 C 0,6 C 68 % 1027,0 hPa 0,0 l/m 2 min 0 min 347 W/m 27,2 km/h (4 Bft)
06.02.2015 13:50 2,6 C 1,1 C 68 % 1027,0 hPa 0,0 l/m 2 min 0 min 340 W/m 20,9 km/h (4 Bft)
06.02.2015 13:52 2,7 C 1,1 C 68 % 1027,1 hPa 0,0 l/m 2 min 0 min 340 W/m 25,1 km/h (4 Bft)
06.02.2015 13:54 2,7 C 1,1 C 68 % 1027,1 hPa 0,0 l/m 2 min 0 min 343 W/m 29,3 km/h (5 Bft)
06.02.2015 13:56 2,8 C 1,1 C 68 % 1027,1 hPa 0,0 l/m 2 min 0 min 340 W/m 23,0 km/h (4 Bft)
06.02.2015 13:58 2,9 C 1,1 C 68 % 1027,1 hPa 0,0 l/m 2 min 0 min 340 W/m 29,3 km/h (5 Bft)
06.02.2015 14:00 2,9 C 1,1 C 67 % 1027,1 hPa 0,0 l/m 2 min 0 min 336 W/m 29,3 km/h (5 Bft)
06.02.2015 14:02 2,9 C 1,1 C 67 % 1027,0 hPa 0,0 l/m 2 min 0 min 332 W/m 31,4 km/h (5 Bft)
06.02.2015 14:04 3,0 C 1,1 C 67 % 1027,1 hPa 0,0 l/m 2 min 0 min 334 W/m 23,0 km/h (4 Bft)
06.02.2015 14:06 3,1 C 1,1 C 68 % 1027,0 hPa 0,0 l/m 2 min 0 min 326 W/m 23,0 km/h (4 Bft)
06.02.2015 14:08 3,1 C 1,1 C 68 % 1027,1 hPa 0,0 l/m 2 min 0 min 322 W/m 29,3 km/h (5 Bft)
06.02.2015 14:10 3,1 C 1,1 C 68 % 1027,1 hPa 0,0 l/m 2 min 0 min 320 W/m 41,8 km/h (6 Bft)
06.02.2015 14:12 3,1 C 1,1 C 67 % 1027,1 hPa 0,0 l/m 2 min 0 min 318 W/m 31,4 km/h (5 Bft)
06.02.2015 14:14 3,1 C 1,1 C 67 % 1027,1 hPa 0,0 l/m 2 min 0 min 316 W/m 29,3 km/h (5 Bft)
06.02.2015 14:16 3,0 C 1,1 C 68 % 1027,1 hPa 0,0 l/m 2 min 0 min 306 W/m 27,2 km/h (4 Bft)
06.02.2015 14:18 3,1 C 1,1 C 68 % 1027,2 hPa 0,0 l/m 2 min 0 min 303 W/m 31,4 km/h (5 Bft)
06.02.2015 14:20 3,0 C 1,1 C 68 % 1027,1 hPa 0,0 l/m 2 min 0 min 297 W/m 35,6 km/h (5 Bft)
06.02.2015 14:22 3,0 C 1,1 C 68 % 1027,1 hPa 0,0 l/m 2 min 0 min 290 W/m 29,3 km/h (5 Bft)
06.02.2015 14:24 3,0 C 1,1 C 68 % 1027,1 hPa 0,0 l/m 2 min 0 min 286 W/m 39,7 km/h (6 Bft)
06.02.2015 14:26 3,0 C 1,1 C 68 % 1027,1 hPa 0,0 l/m 2 min 0 min 295 W/m 35,6 km/h (5 Bft)
06.02.2015 14:28 3,0 C 1,1 C 68 % 1027,1 hPa 0,0 l/m 2 min 0 min 293 W/m 25,1 km/h (4 Bft)
06.02.2015 14:30 3,0 C 1,1 C 68 % 1027,0 hPa 0,0 l/m 2 min 0 min 295 W/m 31,4 km/h (5 Bft)
06.02.2015 14:32 3,0 C 1,1 C 68 % 1027,0 hPa 0,0 l/m 2 min 0 min 287 W/m 25,1 km/h (4 Bft)
06.02.2015 14:34 3,0 C 1,1 C 68 % 1027,0 hPa 0,0 l/m 2 min 0 min 279 W/m 29,3 km/h (5 Bft)
06.02.2015 14:36 3,0 C 1,1 C 68 % 1027,0 hPa 0,0 l/m 2 min 0 min 279 W/m 25,1 km/h (4 Bft)
06.02.2015 14:38 3,0 C 1,1 C 68 % 1027,1 hPa 0,0 l/m 2 min 0 min 281 W/m 29,3 km/h (5 Bft)
06.02.2015 14:40 3,0 C 1,1 C 68 % 1027,0 hPa 0,0 l/m 2 min 0 min 278 W/m 29,3 km/h (5 Bft)
06.02.2015 14:42 3,1 C 1,1 C 68 % 1027,1 hPa 0,0 l/m 2 min 0 min 274 W/m 23,0 km/h (4 Bft)
06.02.2015 14:44 3,1 C 1,1 C 68 % 1027,0 hPa 0,0 l/m 2 min 0 min 273 W/m 29,3 km/h (5 Bft)
06.02.2015 14:46 3,1 C 1,1 C 68 % 1027,0 hPa 0,0 l/m 2 min 0 min 269 W/m 20,9 km/h (4 Bft)
06.02.2015 14:48 3,2 C 1,1 C 68 % 1027,0 hPa 0,0 l/m 2 min 0 min 265 W/m 23,0 km/h (4 Bft)
06.02.2015 14:50 3,2 C 1,1 C 68 % 1027,0 hPa 0,0 l/m 2 min 0 min 261 W/m 25,1 km/h (4 Bft)
06.02.2015 14:52 3,3 C 1,1 C 68 % 1027,0 hPa 0,0 l/m 2 min 0 min 257 W/m 27,2 km/h (4 Bft)
06.02.2015 14:54 3,3 C 1,1 C 68 % 1027,0 hPa 0,0 l/m 2 min 0 min 254 W/m 23,0 km/h (4 Bft)
06.02.2015 14:56 3,3 C 1,1 C 68 % 1027,1 hPa 0,0 l/m 2 min 0 min 246 W/m 27,2 km/h (4 Bft)
06.02.2015 14:58 3,4 C 1,1 C 68 % 1027,0 hPa 0,0 l/m 2 min 0 min 241 W/m 23,0 km/h (4 Bft)
06.02.2015 15:00 3,4 C 1,1 C 68 % 1027,0 hPa 0,0 l/m 2 min 0 min 240 W/m 27,2 km/h (4 Bft)
06.02.2015 15:02 3,4 C 1,1 C 68 % 1027,0 hPa 0,0 l/m 2 min 0 min 236 W/m 29,3 km/h (5 Bft)
06.02.2015 15:04 3,4 C 1,1 C 68 % 1027,1 hPa 0,0 l/m 2 min 0 min 228 W/m 20,9 km/h (4 Bft)
06.02.2015 15:06 3,4 C 1,1 C 67 % 1027,1 hPa 0,0 l/m 2 min 0 min 227 W/m 18,8 km/h (3 Bft)
06.02.2015 15:08 3,4 C 1,1 C 68 % 1027,1 hPa 0,0 l/m 2 min 0 min 221 W/m 16,7 km/h (3 Bft)
06.02.2015 15:10 3,5 C 1,1 C 68 % 1027,0 hPa 0,0 l/m 2 min 0 min 222 W/m 25,1 km/h (4 Bft)
06.02.2015 15:12 3,5 C 1,1 C 68 % 1027,0 hPa 0,0 l/m 2 min 0 min 216 W/m 25,1 km/h (4 Bft)
06.02.2015 15:14 3,5 C 1,1 C 67 % 1027,1 hPa 0,0 l/m 2 min 0 min 209 W/m 23,0 km/h (4 Bft)
06.02.2015 15:16 3,5 C 1,1 C 67 % 1027,1 hPa 0,0 l/m 2 min 0 min 207 W/m 23,0 km/h (4 Bft)
06.02.2015 15:18 3,5 C 1,1 C 67 % 1027,1 hPa 0,0 l/m 2 min 0 min 203 W/m 31,4 km/h (5 Bft)
06.02.2015 15:20 3,4 C 1,1 C 67 % 1027,2 hPa 0,0 l/m 2 min 0 min 198 W/m 29,3 km/h (5 Bft)
06.02.2015 15:22 3,4 C 1,1 C 67 % 1027,2 hPa 0,0 l/m 2 min 0 min 192 W/m 23,0 km/h (4 Bft)
06.02.2015 15:24 3,4 C 1,1 C 67 % 1027,2 hPa 0,0 l/m 2 min 0 min 186 W/m 23,0 km/h (4 Bft)
06.02.2015 15:26 3,3 C 1,1 C 67 % 1027,2 hPa 0,0 l/m 2 min 0 min 180 W/m 31,4 km/h (5 Bft)
06.02.2015 15:28 3,3 C 1,1 C 67 % 1027,1 hPa 0,0 l/m 2 min 0 min 180 W/m 27,2 km/h (4 Bft)
06.02.2015 15:30 3,3 C 1,1 C 67 % 1027,1 hPa 0,0 l/m 2 min 0 min 170 W/m 25,1 km/h (4 Bft)
06.02.2015 15:32 3,2 C 1,1 C 67 % 1027,0 hPa 0,0 l/m 2 min 0 min 165 W/m 35,6 km/h (5 Bft)
06.02.2015 15:34 3,2 C 1,1 C 67 % 1027,0 hPa 0,0 l/m 2 min 0 min 164 W/m 27,2 km/h (4 Bft)
06.02.2015 15:36 3,2 C 1,1 C 67 % 1027,0 hPa 0,0 l/m 2 min 0 min 160 W/m 33,5 km/h (5 Bft)
06.02.2015 15:38 3,1 C 0,6 C 67 % 1027,0 hPa 0,0 l/m 2 min 0 min 157 W/m 27,2 km/h (4 Bft)
06.02.2015 15:40 3,1 C 0,6 C 67 % 1027,1 hPa 0,0 l/m 2 min 0 min 152 W/m 33,5 km/h (5 Bft)
06.02.2015 15:42 3,0 C 0,6 C 67 % 1027,1 hPa 0,0 l/m 2 min 0 min 148 W/m 23,0 km/h (4 Bft)
06.02.2015 15:44 2,9 C 0,6 C 68 % 1027,2 hPa 0,0 l/m 2 min 0 min 143 W/m 29,3 km/h (5 Bft)
06.02.2015 15:46 2,9 C 0,6 C 68 % 1027,2 hPa 0,0 l/m 2 min 0 min 140 W/m 23,0 km/h (4 Bft)
06.02.2015 15:48 2,8 C 0,6 C 68 % 1027,2 hPa 0,0 l/m 2 min 0 min 134 W/m 31,4 km/h (5 Bft)
06.02.2015 15:50 2,8 C 0,6 C 68 % 1027,2 hPa 0,0 l/m 2 min 0 min 132 W/m 29,3 km/h (5 Bft)
06.02.2015 15:52 2,7 C 0,6 C 68 % 1027,1 hPa 0,0 l/m 2 min 0 min 129 W/m 29,3 km/h (5 Bft)
06.02.2015 15:54 2,7 C 0,6 C 68 % 1027,0 hPa 0,0 l/m 2 min 0 min 124 W/m 27,2 km/h (4 Bft)
06.02.2015 15:56 2,6 C 0,6 C 68 % 1027,1 hPa 0,0 l/m 2 min 0 min 120 W/m 33,5 km/h (5 Bft)
06.02.2015 15:58 2,6 C 0,6 C 68 % 1027,2 hPa 0,0 l/m 2 min 0 min 116 W/m 35,6 km/h (5 Bft)
06.02.2015 16:00 2,5 C 0,6 C 69 % 1027,2 hPa 0,0 l/m 2 min 0 min 110 W/m 29,3 km/h (5 Bft)
06.02.2015 16:02 2,4 C 0,6 C 69 % 1027,2 hPa 0,0 l/m 2 min 0 min 108 W/m 31,4 km/h (5 Bft)
06.02.2015 16:04 2,4 C 0,6 C 69 % 1027,0 hPa 0,0 l/m 2 min 0 min 103 W/m 23,0 km/h (4 Bft)
06.02.2015 16:06 2,3 C 0,6 C 70 % 1027,1 hPa 0,0 l/m 2 min 0 min 98 W/m 33,5 km/h (5 Bft)
06.02.2015 16:08 2,3 C 0,6 C 69 % 1027,1 hPa 0,0 l/m 2 min 0 min 95 W/m 23,0 km/h (4 Bft)
06.02.2015 16:10 2,3 C 0,6 C 69 % 1027,0 hPa 0,0 l/m 2 min 0 min 92 W/m 31,4 km/h (5 Bft)
06.02.2015 16:12 2,2 C 0,6 C 69 % 1027,0 hPa 0,0 l/m 2 min 0 min 90 W/m 35,6 km/h (5 Bft)
06.02.2015 16:14 2,2 C 0,6 C 70 % 1027,1 hPa 0,0 l/m 2 min 0 min 84 W/m 20,9 km/h (4 Bft)
06.02.2015 16:16 2,2 C 0,6 C 70 % 1026,9 hPa 0,0 l/m 0 min 0 min 81 W/m 20,9 km/h (4 Bft)
06.02.2015 16:18 2,2 C 0,6 C 71 % 1027,0 hPa 0,0 l/m 0 min 0 min 76 W/m 23,0 km/h (4 Bft)
06.02.2015 16:20 2,1 C 0,6 C 71 % 1027,0 hPa 0,0 l/m 0 min 0 min 72 W/m 25,1 km/h (4 Bft)
06.02.2015 16:22 2,1 C 0,6 C 71 % 1027,1 hPa 0,0 l/m 0 min 0 min 69 W/m 35,6 km/h (5 Bft)
06.02.2015 16:24 2,1 C 0,6 C 71 % 1027,1 hPa 0,0 l/m 0 min 0 min 65 W/m 20,9 km/h (4 Bft)
06.02.2015 16:26 2,1 C 0,0 C 71 % 1027,2 hPa 0,0 l/m 0 min 0 min 62 W/m 25,1 km/h (4 Bft)
06.02.2015 16:28 2,0 C 0,0 C 71 % 1027,2 hPa 0,0 l/m 0 min 0 min 58 W/m 20,9 km/h (4 Bft)
06.02.2015 16:30 1,9 C 0,0 C 72 % 1027,1 hPa 0,0 l/m 0 min 0 min 56 W/m 23,0 km/h (4 Bft)
06.02.2015 16:32 1,9 C 0,0 C 72 % 1027,1 hPa 0,0 l/m 0 min 0 min 54 W/m 31,4 km/h (5 Bft)
06.02.2015 16:34 1,9 C 0,0 C 72 % 1027,1 hPa 0,0 l/m 0 min 0 min 51 W/m 27,2 km/h (4 Bft)
06.02.2015 16:36 1,9 C 0,0 C 72 % 1027,2 hPa 0,0 l/m 0 min 0 min 47 W/m 29,3 km/h (5 Bft)
06.02.2015 16:38 1,8 C 0,0 C 72 % 1027,2 hPa 0,0 l/m 0 min 0 min 45 W/m 29,3 km/h (5 Bft)
06.02.2015 16:40 1,8 C 0,0 C 72 % 1027,3 hPa 0,0 l/m 0 min 0 min 42 W/m 23,0 km/h (4 Bft)
06.02.2015 16:42 1,8 C 0,0 C 72 % 1027,2 hPa 0,0 l/m 0 min 0 min 40 W/m 16,7 km/h (3 Bft)
06.02.2015 16:44 1,7 C 0,0 C 72 % 1027,3 hPa 0,0 l/m 0 min 0 min 39 W/m 23,0 km/h (4 Bft)
06.02.2015 16:46 1,7 C 0,0 C 72 % 1027,3 hPa 0,0 l/m 0 min 0 min 38 W/m 23,0 km/h (4 Bft)
06.02.2015 16:48 1,7 C 0,0 C 73 % 1027,3 hPa 0,0 l/m 0 min 0 min 37 W/m 20,9 km/h (4 Bft)
06.02.2015 16:50 1,7 C 0,0 C 73 % 1027,3 hPa 0,0 l/m 0 min 0 min 34 W/m 20,9 km/h (4 Bft)
06.02.2015 16:52 1,6 C 0,0 C 73 % 1027,3 hPa 0,0 l/m 0 min 0 min 33 W/m 33,5 km/h (5 Bft)
06.02.2015 16:54 1,6 C 0,0 C 73 % 1027,4 hPa 0,0 l/m 0 min 0 min 32 W/m 29,3 km/h (5 Bft)
06.02.2015 16:56 1,6 C 0,0 C 73 % 1027,4 hPa 0,0 l/m 0 min 0 min 30 W/m 29,3 km/h (5 Bft)
06.02.2015 16:58 1,5 C -0,6 C 73 % 1027,4 hPa 0,0 l/m 0 min 0 min 28 W/m 18,8 km/h (3 Bft)
06.02.2015 17:00 1,5 C -0,6 C 73 % 1027,4 hPa 0,0 l/m 0 min 0 min 27 W/m 25,1 km/h (4 Bft)
06.02.2015 17:02 1,4 C -0,6 C 73 % 1027,5 hPa 0,0 l/m 0 min 0 min 26 W/m 20,9 km/h (4 Bft)
06.02.2015 17:04 1,4 C -0,6 C 73 % 1027,4 hPa 0,0 l/m 0 min 0 min 24 W/m 20,9 km/h (4 Bft)
06.02.2015 17:06 1,4 C -0,6 C 73 % 1027,4 hPa 0,0 l/m 0 min 0 min 23 W/m 27,2 km/h (4 Bft)
06.02.2015 17:08 1,4 C -0,6 C 74 % 1027,5 hPa 0,0 l/m 0 min 0 min 21 W/m 23,0 km/h (4 Bft)
06.02.2015 17:10 1,3 C -0,6 C 74 % 1027,6 hPa 0,0 l/m 0 min 0 min 20 W/m 25,1 km/h (4 Bft)
06.02.2015 17:12 1,3 C -0,6 C 74 % 1027,5 hPa 0,0 l/m 2 min 0 min 19 W/m 18,8 km/h (3 Bft)
06.02.2015 17:14 1,3 C -0,6 C 74 % 1027,6 hPa 0,0 l/m 2 min 0 min 18 W/m 25,1 km/h (4 Bft)
06.02.2015 17:16 1,2 C -0,6 C 74 % 1027,6 hPa 0,0 l/m 2 min 0 min 16 W/m 20,9 km/h (4 Bft)
06.02.2015 17:18 1,2 C -0,6 C 74 % 1027,6 hPa 0,0 l/m 2 min 0 min 15 W/m 31,4 km/h (5 Bft)
06.02.2015 17:20 1,2 C -0,6 C 74 % 1027,7 hPa 0,0 l/m 2 min 0 min 14 W/m 31,4 km/h (5 Bft)
06.02.2015 17:22 1,1 C -0,6 C 74 % 1027,6 hPa 0,0 l/m 0 min 0 min 12 W/m 29,3 km/h (5 Bft)
06.02.2015 17:24 1,1 C -0,6 C 75 % 1027,7 hPa 0,0 l/m 0 min 0 min 11 W/m 25,1 km/h (4 Bft)
06.02.2015 17:26 1,0 C -1,1 C 75 % 1027,6 hPa 0,0 l/m 0 min 0 min 11 W/m 37,7 km/h (5 Bft)
06.02.2015 17:28 1,0 C -1,1 C 75 % 1027,7 hPa 0,0 l/m 0 min 0 min 9 W/m 20,9 km/h (4 Bft)
06.02.2015 17:30 0,9 C -1,1 C 75 % 1027,7 hPa 0,0 l/m 0 min 0 min 9 W/m 29,3 km/h (5 Bft)
06.02.2015 17:32 0,9 C -1,1 C 75 % 1027,7 hPa 0,0 l/m 0 min 0 min 7 W/m 23,0 km/h (4 Bft)
06.02.2015 17:34 0,9 C -1,1 C 75 % 1027,7 hPa 0,0 l/m 0 min 0 min 7 W/m 20,9 km/h (4 Bft)
06.02.2015 17:36 0,9 C -1,1 C 75 % 1027,8 hPa 0,0 l/m 0 min 0 min 6 W/m 31,4 km/h (5 Bft)
06.02.2015 17:38 0,9 C -1,1 C 75 % 1027,8 hPa 0,0 l/m 0 min 0 min 5 W/m 25,1 km/h (4 Bft)
06.02.2015 17:40 0,8 C -1,1 C 75 % 1027,9 hPa 0,0 l/m 0 min 0 min 5 W/m 20,9 km/h (4 Bft)
06.02.2015 17:42 0,8 C -1,1 C 75 % 1027,9 hPa 0,0 l/m 0 min 0 min 4 W/m 25,1 km/h (4 Bft)
06.02.2015 17:44 0,8 C -1,1 C 76 % 1027,9 hPa 0,0 l/m 0 min 0 min 0 W/m 23,0 km/h (4 Bft)
06.02.2015 17:46 0,7 C -1,1 C 76 % 1027,9 hPa 0,0 l/m 0 min 0 min 0 W/m 31,4 km/h (5 Bft)
06.02.2015 17:48 0,7 C -1,1 C 76 % 1027,9 hPa 0,0 l/m 0 min 0 min 0 W/m 23,0 km/h (4 Bft)
06.02.2015 17:50 0,7 C -1,1 C 76 % 1027,9 hPa 0,0 l/m 0 min 0 min 0 W/m 27,2 km/h (4 Bft)
06.02.2015 17:52 0,7 C -1,1 C 76 % 1027,9 hPa 0,0 l/m 0 min 0 min 0 W/m 25,1 km/h (4 Bft)
06.02.2015 17:54 0,7 C -1,1 C 76 % 1027,9 hPa 0,0 l/m 0 min 0 min 0 W/m 29,3 km/h (5 Bft)
06.02.2015 17:56 0,7 C -1,1 C 76 % 1027,9 hPa 0,0 l/m 0 min 0 min 0 W/m 37,7 km/h (5 Bft)
06.02.2015 17:58 0,6 C -1,1 C 76 % 1027,9 hPa 0,0 l/m 0 min 0 min 0 W/m 29,3 km/h (5 Bft)
06.02.2015 18:00 0,6 C -1,1 C 76 % 1027,9 hPa 0,0 l/m 0 min 0 min 0 W/m 31,4 km/h (5 Bft)
06.02.2015 18:02 0,6 C -1,1 C 76 % 1027,9 hPa 0,0 l/m 0 min 0 min 0 W/m 33,5 km/h (5 Bft)
06.02.2015 18:05 0,6 C -1,1 C 76 % 1028,0 hPa 0,0 l/m 0 min 0 min 0 W/m 31,4 km/h (5 Bft)
06.02.2015 18:06 0,5 C -1,1 C 76 % 1028,0 hPa 0,0 l/m 0 min 0 min 0 W/m 27,2 km/h (4 Bft)
06.02.2015 18:08 0,5 C -1,1 C 76 % 1028,0 hPa 0,0 l/m 0 min 0 min 0 W/m 20,9 km/h (4 Bft)
06.02.2015 18:10 0,5 C -1,1 C 76 % 1028,0 hPa 0,0 l/m 0 min 0 min 0 W/m 27,2 km/h (4 Bft)
06.02.2015 18:12 0,5 C -1,1 C 76 % 1028,0 hPa 0,0 l/m 0 min 0 min 0 W/m 27,2 km/h (4 Bft)
06.02.2015 18:14 0,5 C -1,1 C 76 % 1028,0 hPa 0,0 l/m 0 min 0 min 0 W/m 27,2 km/h (4 Bft)
06.02.2015 18:16 0,5 C -1,1 C 76 % 1028,1 hPa 0,0 l/m 0 min 0 min 0 W/m 31,4 km/h (5 Bft)
06.02.2015 18:18 0,5 C -1,1 C 76 % 1028,0 hPa 0,0 l/m 0 min 0 min 0 W/m 23,0 km/h (4 Bft)
06.02.2015 18:20 0,5 C -1,1 C 76 % 1028,1 hPa 0,0 l/m 0 min 0 min 0 W/m 31,4 km/h (5 Bft)
06.02.2015 18:22 0,4 C -1,1 C 76 % 1028,1 hPa 0,0 l/m 0 min 0 min 0 W/m 25,1 km/h (4 Bft)
06.02.2015 18:24 0,4 C -1,1 C 76 % 1028,1 hPa 0,0 l/m 0 min 0 min 0 W/m 25,1 km/h (4 Bft)
06.02.2015 18:26 0,4 C -1,1 C 76 % 1028,2 hPa 0,0 l/m 0 min 0 min 0 W/m 27,2 km/h (4 Bft)
06.02.2015 18:28 0,4 C -1,1 C 77 % 1028,1 hPa 0,0 l/m 0 min 0 min 0 W/m 20,9 km/h (4 Bft)
06.02.2015 18:30 0,4 C -1,7 C 76 % 1028,1 hPa 0,0 l/m 0 min 0 min 0 W/m 27,2 km/h (4 Bft)
06.02.2015 18:32 0,4 C -1,7 C 77 % 1028,1 hPa 0,0 l/m 0 min 0 min 0 W/m 29,3 km/h (5 Bft)
06.02.2015 18:34 0,4 C -1,1 C 77 % 1028,1 hPa 0,0 l/m 0 min 0 min 0 W/m 31,4 km/h (5 Bft)
06.02.2015 18:36 0,3 C -1,1 C 77 % 1028,1 hPa 0,0 l/m 0 min 0 min 0 W/m 29,3 km/h (5 Bft)
06.02.2015 18:38 0,3 C -1,1 C 77 % 1028,2 hPa 0,0 l/m 0 min 0 min 0 W/m 33,5 km/h (5 Bft)
06.02.2015 18:40 0,3 C -1,1 C 77 % 1028,1 hPa 0,0 l/m 0 min 0 min 0 W/m 35,6 km/h (5 Bft)
06.02.2015 18:42 0,3 C -1,1 C 77 % 1028,1 hPa 0,0 l/m 0 min 0 min 0 W/m 33,5 km/h (5 Bft)
06.02.2015 18:44 0,3 C -1,1 C 77 % 1028,1 hPa 0,0 l/m 0 min 0 min 0 W/m 31,4 km/h (5 Bft)
06.02.2015 18:46 0,3 C -1,1 C 77 % 1028,1 hPa 0,0 l/m 0 min 0 min 0 W/m 31,4 km/h (5 Bft)
06.02.2015 18:48 0,3 C -1,7 C 77 % 1028,1 hPa 0,0 l/m 0 min 0 min 0 W/m 23,0 km/h (4 Bft)
06.02.2015 18:50 0,3 C -1,7 C 77 % 1028,1 hPa 0,0 l/m 0 min 0 min 0 W/m 27,2 km/h (4 Bft)
06.02.2015 18:52 0,2 C -1,7 C 77 % 1028,1 hPa 0,0 l/m 0 min 0 min 0 W/m 29,3 km/h (5 Bft)
06.02.2015 18:54 0,2 C -1,7 C 77 % 1028,1 hPa 0,0 l/m 0 min 0 min 0 W/m 41,8 km/h (6 Bft)
06.02.2015 18:56 0,2 C -1,7 C 77 % 1028,1 hPa 0,0 l/m 0 min 0 min 0 W/m 27,2 km/h (4 Bft)
06.02.2015 18:58 0,2 C -1,1 C 77 % 1028,1 hPa 0,0 l/m 0 min 0 min 0 W/m 31,4 km/h (5 Bft)
06.02.2015 19:00 0,2 C -1,1 C 77 % 1028,1 hPa 0,0 l/m 0 min 0 min 0 W/m 27,2 km/h (4 Bft)
06.02.2015 19:02 0,2 C -1,7 C 77 % 1028,1 hPa 0,0 l/m 0 min 0 min 0 W/m 27,2 km/h (4 Bft)
06.02.2015 19:04 0,2 C -1,7 C 77 % 1028,1 hPa 0,0 l/m 0 min 0 min 0 W/m 20,9 km/h (4 Bft)
06.02.2015 19:06 0,2 C -1,7 C 77 % 1028,2 hPa 0,0 l/m 0 min 0 min 0 W/m 27,2 km/h (4 Bft)
06.02.2015 19:08 0,1 C -1,7 C 77 % 1028,2 hPa 0,0 l/m 0 min 0 min 0 W/m 27,2 km/h (4 Bft)
06.02.2015 19:10 0,1 C -1,7 C 78 % 1028,3 hPa 0,0 l/m 0 min 0 min 0 W/m 29,3 km/h (5 Bft)
06.02.2015 19:12 0,1 C -1,7 C 78 % 1028,3 hPa 0,0 l/m 0 min 0 min 0 W/m 37,7 km/h (5 Bft)
06.02.2015 19:14 0,1 C -1,7 C 78 % 1028,3 hPa 0,0 l/m 0 min 0 min 0 W/m 31,4 km/h (5 Bft)
06.02.2015 19:16 0,1 C -1,7 C 78 % 1028,3 hPa 0,0 l/m 0 min 0 min 0 W/m 25,1 km/h (4 Bft)
06.02.2015 19:18 0,1 C -1,7 C 78 % 1028,4 hPa 0,0 l/m 0 min 0 min 0 W/m 29,3 km/h (5 Bft)
06.02.2015 19:20 0,1 C -1,7 C 78 % 1028,4 hPa 0,0 l/m 0 min 0 min 0 W/m 31,4 km/h (5 Bft)
06.02.2015 19:22 0,0 C -1,7 C 78 % 1028,4 hPa 0,0 l/m 0 min 0 min 0 W/m 27,2 km/h (4 Bft)
06.02.2015 19:24 0,1 C -1,7 C 78 % 1028,4 hPa 0,0 l/m 0 min 0 min 0 W/m 20,9 km/h (4 Bft)
06.02.2015 19:26 0,0 C -1,7 C 78 % 1028,4 hPa 0,0 l/m 0 min 0 min 0 W/m 27,2 km/h (4 Bft)
06.02.2015 19:28 0,0 C -1,7 C 78 % 1028,5 hPa 0,0 l/m 0 min 0 min 0 W/m 25,1 km/h (4 Bft)
06.02.2015 19:30 0,0 C -1,7 C 78 % 1028,5 hPa 0,0 l/m 0 min 0 min 0 W/m 25,1 km/h (4 Bft)
06.02.2015 19:32 0,0 C -1,7 C 78 % 1028,5 hPa 0,0 l/m 0 min 0 min 0 W/m 18,8 km/h (3 Bft)
06.02.2015 19:34 -0,1 C -1,7 C 78 % 1028,5 hPa 0,0 l/m 0 min 0 min 0 W/m 25,1 km/h (4 Bft)
06.02.2015 19:36 -0,1 C -1,7 C 78 % 1028,5 hPa 0,0 l/m 0 min 0 min 0 W/m 23,0 km/h (4 Bft)
06.02.2015 19:38 -0,1 C -1,7 C 78 % 1028,6 hPa 0,0 l/m 0 min 0 min 0 W/m 29,3 km/h (5 Bft)
06.02.2015 19:40 -0,1 C -1,7 C 78 % 1028,6 hPa 0,0 l/m 0 min 0 min 0 W/m 20,9 km/h (4 Bft)
06.02.2015 19:42 -0,1 C -1,7 C 79 % 1028,6 hPa 0,0 l/m 0 min 0 min 0 W/m 12,6 km/h (3 Bft)
06.02.2015 19:44 -0,1 C -2,2 C 79 % 1028,6 hPa 0,0 l/m 0 min 0 min 0 W/m 18,8 km/h (3 Bft)
06.02.2015 19:46 -0,2 C -2,2 C 79 % 1028,5 hPa 0,0 l/m 0 min 0 min 0 W/m 23,0 km/h (4 Bft)
06.02.2015 19:48 -0,2 C -2,2 C 79 % 1028,5 hPa 0,0 l/m 0 min 0 min 0 W/m 20,9 km/h (4 Bft)
06.02.2015 19:50 -0,2 C -2,2 C 79 % 1028,5 hPa 0,0 l/m 0 min 0 min 0 W/m 29,3 km/h (5 Bft)
06.02.2015 19:52 -0,2 C -2,2 C 79 % 1028,6 hPa 0,0 l/m 0 min 0 min 0 W/m 29,3 km/h (5 Bft)
06.02.2015 19:54 -0,2 C -2,2 C 79 % 1028,6 hPa 0,0 l/m 0 min 0 min 0 W/m 31,4 km/h (5 Bft)
06.02.2015 19:56 -0,3 C -2,2 C 79 % 1028,6 hPa 0,0 l/m 0 min 0 min 0 W/m 20,9 km/h (4 Bft)
06.02.2015 19:58 -0,3 C -2,2 C 79 % 1028,8 hPa 0,0 l/m 0 min 0 min 0 W/m 29,3 km/h (5 Bft)
06.02.2015 20:00 -0,3 C -2,2 C 79 % 1028,8 hPa 0,0 l/m 0 min 0 min 0 W/m 20,9 km/h (4 Bft)
06.02.2015 20:02 -0,3 C -2,2 C 79 % 1028,9 hPa 0,0 l/m 0 min 0 min 0 W/m 18,8 km/h (3 Bft)
06.02.2015 20:04 -0,3 C -2,2 C 79 % 1028,9 hPa 0,0 l/m 0 min 0 min 0 W/m 18,8 km/h (3 Bft)
06.02.2015 20:06 -0,3 C -2,2 C 79 % 1028,9 hPa 0,0 l/m 0 min 0 min 0 W/m 20,9 km/h (4 Bft)
06.02.2015 20:08 -0,3 C -2,2 C 79 % 1028,8 hPa 0,0 l/m 0 min 0 min 0 W/m 23,0 km/h (4 Bft)
06.02.2015 20:10 -0,3 C -2,2 C 79 % 1028,8 hPa 0,0 l/m 0 min 0 min 0 W/m 16,7 km/h (3 Bft)
06.02.2015 20:12 -0,4 C -2,2 C 79 % 1028,8 hPa 0,0 l/m 0 min 0 min 0 W/m 20,9 km/h (4 Bft)
06.02.2015 20:14 -0,4 C -2,2 C 79 % 1028,8 hPa 0,0 l/m 0 min 0 min 0 W/m 25,1 km/h (4 Bft)
06.02.2015 20:16 -0,4 C -2,2 C 79 % 1028,8 hPa 0,0 l/m 0 min 0 min 0 W/m 18,8 km/h (3 Bft)
06.02.2015 20:18 -0,4 C -2,2 C 79 % 1028,8 hPa 0,0 l/m 0 min 0 min 0 W/m 18,8 km/h (3 Bft)
06.02.2015 20:20 -0,4 C -2,2 C 79 % 1028,8 hPa 0,0 l/m 0 min 0 min 0 W/m 14,6 km/h (3 Bft)
06.02.2015 20:22 -0,4 C -2,2 C 79 % 1028,9 hPa 0,0 l/m 0 min 0 min 0 W/m 20,9 km/h (4 Bft)
06.02.2015 20:24 -0,4 C -2,2 C 79 % 1028,8 hPa 0,0 l/m 0 min 0 min 0 W/m 27,2 km/h (4 Bft)
06.02.2015 20:26 -0,4 C -2,2 C 80 % 1028,8 hPa 0,0 l/m 0 min 0 min 0 W/m 20,9 km/h (4 Bft)
06.02.2015 20:28 -0,5 C -2,2 C 80 % 1028,7 hPa 0,0 l/m 0 min 0 min 0 W/m 27,2 km/h (4 Bft)
06.02.2015 20:30 -0,5 C -2,2 C 80 % 1028,8 hPa 0,0 l/m 0 min 0 min 0 W/m 23,0 km/h (4 Bft)
06.02.2015 20:32 -0,5 C -2,2 C 80 % 1028,8 hPa 0,0 l/m 0 min 0 min 0 W/m 20,9 km/h (4 Bft)
06.02.2015 20:34 -0,5 C -2,2 C 80 % 1028,8 hPa 0,0 l/m 0 min 0 min 0 W/m 27,2 km/h (4 Bft)
06.02.2015 20:36 -0,5 C -2,2 C 80 % 1028,7 hPa 0,0 l/m 0 min 0 min 0 W/m 31,4 km/h (5 Bft)
06.02.2015 20:38 -0,5 C -2,2 C 80 % 1028,7 hPa 0,0 l/m 0 min 0 min 0 W/m 35,6 km/h (5 Bft)
06.02.2015 20:40 -0,5 C -2,2 C 80 % 1028,7 hPa 0,0 l/m 0 min 0 min 0 W/m 25,1 km/h (4 Bft)
06.02.2015 20:42 -0,5 C -2,2 C 80 % 1028,7 hPa 0,0 l/m 0 min 0 min 0 W/m 23,0 km/h (4 Bft)
06.02.2015 20:44 -0,5 C -2,2 C 80 % 1028,7 hPa 0,0 l/m 0 min 0 min 0 W/m 27,2 km/h (4 Bft)
06.02.2015 20:46 -0,5 C -2,2 C 80 % 1028,8 hPa 0,0 l/m 0 min 0 min 0 W/m 41,8 km/h (6 Bft)
06.02.2015 20:48 -0,5 C -2,2 C 80 % 1028,8 hPa 0,0 l/m 0 min 0 min 0 W/m 18,8 km/h (3 Bft)
06.02.2015 20:50 -0,5 C -2,2 C 80 % 1028,8 hPa 0,0 l/m 0 min 0 min 0 W/m 20,9 km/h (4 Bft)
06.02.2015 20:52 -0,6 C -2,2 C 80 % 1028,8 hPa 0,0 l/m 0 min 0 min 0 W/m 29,3 km/h (5 Bft)
06.02.2015 20:54 -0,6 C -2,2 C 80 % 1028,9 hPa 0,0 l/m 0 min 0 min 0 W/m 23,0 km/h (4 Bft)
06.02.2015 20:56 -0,6 C -2,2 C 80 % 1028,8 hPa 0,0 l/m 0 min 0 min 0 W/m 29,3 km/h (5 Bft)
06.02.2015 20:58 -0,6 C -2,2 C 80 % 1028,8 hPa 0,0 l/m 0 min 0 min 0 W/m 29,3 km/h (5 Bft)
06.02.2015 21:00 -0,6 C -2,2 C 80 % 1028,9 hPa 0,0 l/m 0 min 0 min 0 W/m 23,0 km/h (4 Bft)
06.02.2015 21:02 -0,6 C -2,2 C 80 % 1029,0 hPa 0,0 l/m 0 min 0 min 0 W/m 20,9 km/h (4 Bft)
06.02.2015 21:04 -0,6 C -2,2 C 80 % 1028,9 hPa 0,0 l/m 0 min 0 min 0 W/m 27,2 km/h (4 Bft)
06.02.2015 21:06 -0,6 C -2,2 C 80 % 1028,9 hPa 0,0 l/m 0 min 0 min 0 W/m 16,7 km/h (3 Bft)
06.02.2015 21:08 -0,6 C -2,2 C 80 % 1029,1 hPa 0,0 l/m 0 min 0 min 0 W/m 18,8 km/h (3 Bft)
06.02.2015 21:10 -0,6 C -2,2 C 80 % 1029,0 hPa 0,0 l/m 0 min 0 min 0 W/m 14,6 km/h (3 Bft)
06.02.2015 21:12 -0,7 C -2,2 C 80 % 1029,1 hPa 0,0 l/m 0 min 0 min 0 W/m 20,9 km/h (4 Bft)
06.02.2015 21:14 -0,7 C -2,2 C 80 % 1029,0 hPa 0,0 l/m 0 min 0 min 0 W/m 31,4 km/h (5 Bft)
06.02.2015 21:16 -0,7 C -2,2 C 80 % 1029,2 hPa 0,0 l/m 0 min 0 min 0 W/m 20,9 km/h (4 Bft)
06.02.2015 21:18 -0,7 C -2,2 C 80 % 1029,3 hPa 0,0 l/m 0 min 0 min 0 W/m 20,9 km/h (4 Bft)
06.02.2015 21:20 -0,7 C -2,8 C 80 % 1029,3 hPa 0,0 l/m 0 min 0 min 0 W/m 18,8 km/h (3 Bft)
06.02.2015 21:22 -0,7 C -2,8 C 80 % 1029,3 hPa 0,0 l/m 0 min 0 min 0 W/m 27,2 km/h (4 Bft)
06.02.2015 21:24 -0,7 C -2,2 C 81 % 1029,3 hPa 0,0 l/m 0 min 0 min 0 W/m 20,9 km/h (4 Bft)
06.02.2015 21:26 -0,8 C -2,2 C 81 % 1029,3 hPa 0,0 l/m 0 min 0 min 0 W/m 20,9 km/h (4 Bft)
06.02.2015 21:28 -0,8 C -2,2 C 81 % 1029,3 hPa 0,0 l/m 0 min 0 min 0 W/m 20,9 km/h (4 Bft)
06.02.2015 21:30 -0,8 C -2,2 C 81 % 1029,3 hPa 0,0 l/m 0 min 0 min 0 W/m 18,8 km/h (3 Bft)
06.02.2015 21:32 -0,7 C -2,2 C 81 % 1029,3 hPa 0,0 l/m 0 min 0 min 0 W/m 14,6 km/h (3 Bft)
06.02.2015 21:34 -0,8 C -2,2 C 81 % 1029,3 hPa 0,0 l/m 0 min 0 min 0 W/m 25,1 km/h (4 Bft)
06.02.2015 21:36 -0,8 C -2,2 C 81 % 1029,3 hPa 0,0 l/m 0 min 0 min 0 W/m 25,1 km/h (4 Bft)
06.02.2015 21:38 -0,7 C -2,2 C 81 % 1029,3 hPa 0,0 l/m 0 min 0 min 0 W/m 31,4 km/h (5 Bft)
06.02.2015 21:40 -0,8 C -2,2 C 81 % 1029,3 hPa 0,0 l/m 0 min 0 min 0 W/m 31,4 km/h (5 Bft)
06.02.2015 21:42 -0,7 C -2,2 C 81 % 1029,3 hPa 0,0 l/m 0 min 0 min 0 W/m 27,2 km/h (4 Bft)
06.02.2015 21:44 -0,7 C -2,2 C 81 % 1029,3 hPa 0,0 l/m 0 min 0 min 0 W/m 27,2 km/h (4 Bft)
06.02.2015 21:46 -0,7 C -2,2 C 81 % 1029,3 hPa 0,0 l/m 0 min 0 min 0 W/m 18,8 km/h (3 Bft)
06.02.2015 21:48 -0,7 C -2,2 C 81 % 1029,4 hPa 0,0 l/m 0 min 0 min 0 W/m 20,9 km/h (4 Bft)
06.02.2015 21:50 -0,7 C -2,2 C 81 % 1029,4 hPa 0,0 l/m 0 min 0 min 0 W/m 23,0 km/h (4 Bft)
06.02.2015 21:52 -0,8 C -2,2 C 81 % 1029,4 hPa 0,0 l/m 0 min 0 min 0 W/m 23,0 km/h (4 Bft)
06.02.2015 21:54 -0,8 C -2,8 C 81 % 1029,4 hPa 0,0 l/m 0 min 0 min 0 W/m 27,2 km/h (4 Bft)
06.02.2015 21:56 -0,8 C -2,2 C 81 % 1029,3 hPa 0,0 l/m 0 min 0 min 0 W/m 31,4 km/h (5 Bft)
06.02.2015 21:58 -0,8 C -2,2 C 81 % 1029,4 hPa 0,0 l/m 0 min 0 min 0 W/m 23,0 km/h (4 Bft)
06.02.2015 22:00 -0,8 C -2,2 C 81 % 1029,4 hPa 0,0 l/m 0 min 0 min 0 W/m 18,8 km/h (3 Bft)
06.02.2015 22:02 -0,8 C -2,2 C 81 % 1029,4 hPa 0,0 l/m 0 min 0 min 0 W/m 25,1 km/h (4 Bft)
06.02.2015 22:04 -0,8 C -2,2 C 81 % 1029,3 hPa 0,0 l/m 0 min 0 min 0 W/m 20,9 km/h (4 Bft)
06.02.2015 22:06 -0,8 C -2,8 C 81 % 1029,4 hPa 0,0 l/m 0 min 0 min 0 W/m 16,7 km/h (3 Bft)
06.02.2015 22:08 -0,8 C -2,8 C 81 % 1029,3 hPa 0,0 l/m 0 min 0 min 0 W/m 16,7 km/h (3 Bft)
06.02.2015 22:10 -0,8 C -2,8 C 81 % 1029,3 hPa 0,0 l/m 0 min 0 min 0 W/m 25,1 km/h (4 Bft)
06.02.2015 22:12 -0,8 C -2,8 C 81 % 1029,4 hPa 0,0 l/m 0 min 0 min 0 W/m 27,2 km/h (4 Bft)
06.02.2015 22:14 -0,8 C -2,2 C 82 % 1029,3 hPa 0,0 l/m 0 min 0 min 0 W/m 27,2 km/h (4 Bft)
06.02.2015 22:16 -0,8 C -2,2 C 82 % 1029,4 hPa 0,0 l/m 0 min 0 min 0 W/m 23,0 km/h (4 Bft)
06.02.2015 22:18 -0,9 C -2,2 C 81 % 1029,4 hPa 0,0 l/m 0 min 0 min 0 W/m 27,2 km/h (4 Bft)
06.02.2015 22:20 -0,9 C -2,2 C 81 % 1029,4 hPa 0,0 l/m 0 min 0 min 0 W/m 29,3 km/h (5 Bft)
06.02.2015 22:22 -0,9 C -2,2 C 82 % 1029,4 hPa 0,0 l/m 0 min 0 min 0 W/m 25,1 km/h (4 Bft)
06.02.2015 22:24 -0,9 C -2,2 C 82 % 1029,5 hPa 0,0 l/m 0 min 0 min 0 W/m 23,0 km/h (4 Bft)
06.02.2015 22:26 -0,9 C -2,2 C 82 % 1029,5 hPa 0,0 l/m 0 min 0 min 0 W/m 23,0 km/h (4 Bft)
06.02.2015 22:28 -0,9 C -2,2 C 82 % 1029,6 hPa 0,0 l/m 0 min 0 min 0 W/m 25,1 km/h (4 Bft)
06.02.2015 22:30 -0,9 C -2,8 C 82 % 1029,6 hPa 0,0 l/m 0 min 0 min 0 W/m 12,6 km/h (3 Bft)
06.02.2015 22:32 -0,9 C -2,8 C 82 % 1029,6 hPa 0,0 l/m 0 min 0 min 0 W/m 14,6 km/h (3 Bft)
06.02.2015 22:34 -0,9 C -2,8 C 82 % 1029,5 hPa 0,0 l/m 0 min 0 min 0 W/m 27,2 km/h (4 Bft)
06.02.2015 22:36 -0,9 C -2,8 C 82 % 1029,6 hPa 0,0 l/m 0 min 0 min 0 W/m 20,9 km/h (4 Bft)
06.02.2015 22:38 -1,0 C -2,8 C 82 % 1029,6 hPa 0,0 l/m 0 min 0 min 0 W/m 16,7 km/h (3 Bft)
06.02.2015 22:40 -1,0 C -2,8 C 82 % 1029,6 hPa 0,0 l/m 0 min 0 min 0 W/m 20,9 km/h (4 Bft)
06.02.2015 22:42 -1,0 C -2,8 C 82 % 1029,6 hPa 0,0 l/m 0 min 0 min 0 W/m 29,3 km/h (5 Bft)
06.02.2015 22:44 -1,0 C -2,8 C 82 % 1029,6 hPa 0,0 l/m 0 min 0 min 0 W/m 25,1 km/h (4 Bft)
06.02.2015 22:46 -1,0 C -2,8 C 82 % 1029,7 hPa 0,0 l/m 0 min 0 min 0 W/m 25,1 km/h (4 Bft)
06.02.2015 22:48 -1,0 C -2,8 C 82 % 1029,6 hPa 0,0 l/m 0 min 0 min 0 W/m 23,0 km/h (4 Bft)
06.02.2015 22:50 -1,0 C -2,8 C 82 % 1029,7 hPa 0,0 l/m 0 min 0 min 0 W/m 18,8 km/h (3 Bft)
06.02.2015 22:52 -1,0 C -2,8 C 82 % 1029,6 hPa 0,0 l/m 0 min 0 min 0 W/m 31,4 km/h (5 Bft)
06.02.2015 22:54 -1,0 C -2,2 C 82 % 1029,7 hPa 0,0 l/m 0 min 0 min 0 W/m 18,8 km/h (3 Bft)
06.02.2015 22:56 -1,0 C -2,8 C 82 % 1029,7 hPa 0,0 l/m 0 min 0 min 0 W/m 20,9 km/h (4 Bft)
06.02.2015 22:58 -1,0 C -2,2 C 82 % 1029,6 hPa 0,0 l/m 0 min 0 min 0 W/m 25,1 km/h (4 Bft)
06.02.2015 23:00 -1,0 C -2,8 C 82 % 1029,6 hPa 0,0 l/m 0 min 0 min 0 W/m 27,2 km/h (4 Bft)
06.02.2015 23:02 -1,0 C -2,2 C 82 % 1029,6 hPa 0,0 l/m 0 min 0 min 0 W/m 29,3 km/h (5 Bft)
06.02.2015 23:04 -1,0 C -2,8 C 82 % 1029,7 hPa 0,0 l/m 0 min 0 min 0 W/m 18,8 km/h (3 Bft)
06.02.2015 23:06 -1,0 C -2,8 C 82 % 1029,6 hPa 0,0 l/m 0 min 0 min 0 W/m 23,0 km/h (4 Bft)
06.02.2015 23:08 -1,0 C -2,2 C 82 % 1029,7 hPa 0,0 l/m 0 min 0 min 0 W/m 18,8 km/h (3 Bft)
06.02.2015 23:10 -1,0 C -2,8 C 82 % 1029,6 hPa 0,0 l/m 0 min 0 min 0 W/m 25,1 km/h (4 Bft)
06.02.2015 23:12 -1,0 C -2,8 C 82 % 1029,7 hPa 0,0 l/m 0 min 0 min 0 W/m 20,9 km/h (4 Bft)
06.02.2015 23:14 -1,0 C -2,8 C 82 % 1029,7 hPa 0,0 l/m 0 min 0 min 0 W/m 27,2 km/h (4 Bft)
06.02.2015 23:16 -1,1 C -2,8 C 82 % 1029,7 hPa 0,0 l/m 0 min 0 min 0 W/m 18,8 km/h (3 Bft)
06.02.2015 23:18 -1,1 C -2,8 C 82 % 1029,7 hPa 0,0 l/m 0 min 0 min 0 W/m 29,3 km/h (5 Bft)
06.02.2015 23:20 -1,1 C -2,8 C 82 % 1029,7 hPa 0,0 l/m 0 min 0 min 0 W/m 18,8 km/h (3 Bft)
06.02.2015 23:22 -1,1 C -2,8 C 82 % 1029,7 hPa 0,0 l/m 0 min 0 min 0 W/m 23,0 km/h (4 Bft)
06.02.2015 23:24 -1,1 C -2,8 C 82 % 1029,7 hPa 0,0 l/m 0 min 0 min 0 W/m 20,9 km/h (4 Bft)
06.02.2015 23:26 -1,1 C -2,8 C 82 % 1029,8 hPa 0,0 l/m 0 min 0 min 0 W/m 16,7 km/h (3 Bft)
06.02.2015 23:28 -1,1 C -2,8 C 82 % 1029,8 hPa 0,0 l/m 0 min 0 min 0 W/m 18,8 km/h (3 Bft)
06.02.2015 23:30 -1,1 C -2,8 C 82 % 1029,9 hPa 0,0 l/m 0 min 0 min 0 W/m 20,9 km/h (4 Bft)
06.02.2015 23:32 -1,1 C -2,8 C 82 % 1029,8 hPa 0,0 l/m 0 min 0 min 0 W/m 18,8 km/h (3 Bft)
06.02.2015 23:34 -1,1 C -2,8 C 82 % 1029,8 hPa 0,0 l/m 0 min 0 min 0 W/m 20,9 km/h (4 Bft)
06.02.2015 23:36 -1,1 C -2,8 C 82 % 1029,9 hPa 0,0 l/m 0 min 0 min 0 W/m 23,0 km/h (4 Bft)
06.02.2015 23:38 -1,1 C -2,8 C 82 % 1029,9 hPa 0,0 l/m 0 min 0 min 0 W/m 20,9 km/h (4 Bft)
06.02.2015 23:40 -1,1 C -2,8 C 82 % 1029,9 hPa 0,0 l/m 0 min 0 min 0 W/m 27,2 km/h (4 Bft)
06.02.2015 23:42 -1,2 C -2,8 C 82 % 1029,9 hPa 0,0 l/m 0 min 0 min 0 W/m 23,0 km/h (4 Bft)
06.02.2015 23:44 -1,2 C -2,8 C 82 % 1029,9 hPa 0,0 l/m 0 min 0 min 0 W/m 27,2 km/h (4 Bft)
06.02.2015 23:46 -1,2 C -2,8 C 82 % 1029,9 hPa 0,0 l/m 0 min 0 min 0 W/m 27,2 km/h (4 Bft)
06.02.2015 23:48 -1,2 C -2,8 C 82 % 1029,9 hPa 0,0 l/m 0 min 0 min 0 W/m 27,2 km/h (4 Bft)
06.02.2015 23:50 -1,2 C -2,8 C 82 % 1029,9 hPa 0,0 l/m 0 min 0 min 0 W/m 23,0 km/h (4 Bft)
06.02.2015 23:52 -1,2 C -2,8 C 82 % 1029,9 hPa 0,0 l/m 0 min 0 min 0 W/m 25,1 km/h (4 Bft)
06.02.2015 23:54 -1,2 C -2,8 C 82 % 1029,9 hPa 0,0 l/m 0 min 0 min 0 W/m 27,2 km/h (4 Bft)
06.02.2015 23:56 -1,2 C -2,8 C 82 % 1029,9 hPa 0,0 l/m 0 min 0 min 0 W/m 27,2 km/h (4 Bft)
06.02.2015 23:58 -1,2 C -2,8 C 82 % 1029,9 hPa 0,0 l/m 0 min 0 min 0 W/m 23,0 km/h (4 Bft)
_ Min-Zeit 08:16 03:52 13:40 04:44 - - - - 05:02
Minimum _ -2,7 C -3,9 C 67 % 1025,3 hPa - - - - 10,5 km/h (2 Bft)
_ Max-Zeit 15:10 13:50 05:38 23:30 00:00 08:18 00:00 12:44 11:12
Maximum _ 3,5 C 1,1 C 87 % 1029,9 hPa 0,0 l/m 2 min 0 min 382 W/m 56,5 km/h
O (7 Bft)
Durchschnitt _ -0,5 C -1,9 C 79 % 1027,1 hPa #0,0 l/m #7:31 h #0 min. 196 W/m 27,3 km/h (4 Bft)
© 2015 W. Hausmann